Time,TemperatureF,DewpointF,PressureIn,WindDirection,WindDirectionDegrees,WindSpeedMPH,WindSpeedGustMPH,Humidity,HourlyPrecipIn,Conditions,Clouds,dailyrainin,SoftwareType,DateUTC
2013-03-09 00:00:00,34.7,25.2,30.32,NW,315,3.0,3.0,68,0.00,,,0.00,Wunderground v.1.15,2013-03-09 05:00:00,
2013-03-09 00:01:00,34.6,25.1,30.32,NNW,334,3.0,12.0,68,0.00,,,0.00,Wunderground v.1.15,2013-03-09 05:01:00,
2013-03-09 00:02:00,34.6,25.1,30.32,NNW,329,3.0,12.0,68,0.00,,,0.00,Wunderground v.1.15,2013-03-09 05:02:00,
2013-03-09 00:05:00,34.4,24.9,30.32,NW,306,2.0,12.0,68,0.00,,,0.00,Wunderground v.1.15,2013-03-09 05:05:00,
2013-03-09 00:08:00,34.4,25.3,30.32,NW,321,2.0,12.0,69,0.00,,,0.00,Wunderground v.1.15,2013-03-09 05:08:00,
2013-03-09 00:09:00,34.4,25.3,30.32,North,349,2.0,12.0,69,0.00,,,0.00,Wunderground v.1.15,2013-03-09 05:09:00,
2013-03-09 00:11:00,34.4,25.3,30.32,NNW,342,1.0,2.0,69,0.00,,,0.00,Wunderground v.1.15,2013-03-09 05:11:00,
2013-03-09 00:14:00,34.2,24.7,30.32,NW,316,2.0,3.0,68,0.00,,,0.00,Wunderground v.1.15,2013-03-09 05:14:00,
2013-03-09 00:16:00,34.2,24.7,30.32,NW,312,2.0,5.0,68,0.00,,,0.00,Wunderground v.1.15,2013-03-09 05:16:00,
2013-03-09 00:19:00,34.3,24.8,30.32,North,9,2.0,5.0,68,0.00,,,0.00,Wunderground v.1.15,2013-03-09 05:19:00,
2013-03-09 00:21:00,34.2,24.7,30.32,NNW,344,2.0,2.0,68,0.00,,,0.00,Wunderground v.1.15,2013-03-09 05:21:00,
2013-03-09 00:23:00,34.1,24.6,30.32,NNW,343,2.0,3.0,68,0.00,,,0.00,Wunderground v.1.15,2013-03-09 05:23:00,
2013-03-09 00:24:00,34.1,24.6,30.32,NNW,341,2.0,3.0,68,0.00,,,0.00,Wunderground v.1.15,2013-03-09 05:24:00,
2013-03-09 00:27:00,34.0,24.5,30.32,NNW,338,1.0,3.0,68,0.00,,,0.00,Wunderground v.1.15,2013-03-09 05:27:00,
2013-03-09 00:31:00,33.9,24.8,30.33,NNW,340,1.0,16.0,69,0.00,,,0.00,Wunderground v.1.15,2013-03-09 05:31:00,
2013-03-09 00:34:00,33.8,24.7,30.33,NNW,346,1.0,16.0,69,0.00,,,0.00,Wunderground v.1.15,2013-03-09 05:34:00,
2013-03-09 00:35:00,33.8,24.7,30.33,NW,323,1.0,16.0,69,0.00,,,0.00,Wunderground v.1.15,2013-03-09 05:35:00,
2013-03-09 00:38:00,33.8,24.7,30.33,NNW,338,1.0,16.0,69,0.00,,,0.00,Wunderground v.1.15,2013-03-09 05:38:00,
2013-03-09 00:39:00,33.8,24.7,30.33,NNW,329,1.0,16.0,69,0.00,,,0.00,Wunderground v.1.15,2013-03-09 05:39:00,
2013-03-09 00:40:00,33.8,24.7,30.33,NNW,330,1.0,1.0,69,0.00,,,0.00,Wunderground v.1.15,2013-03-09 05:40:00,
2013-03-09 00:44:00,33.7,24.6,30.33,NNW,338,1.0,1.0,69,0.00,,,0.00,Wunderground v.1.15,2013-03-09 05:44:00,
2013-03-09 00:45:00,33.7,24.6,30.33,NNW,338,1.0,1.0,69,0.00,,,0.00,Wunderground v.1.15,2013-03-09 05:45:00,
2013-03-09 00:46:00,33.6,24.5,30.33,NNW,339,0.0,1.0,69,0.00,,,0.00,Wunderground v.1.15,2013-03-09 05:46:00,
2013-03-09 00:50:00,33.5,24.4,30.33,NNW,338,0.0,0.0,69,0.00,,,0.00,Wunderground v.1.15,2013-03-09 05:50:00,
2013-03-09 00:52:00,33.5,24.4,30.33,NNW,348,0.0,2.0,69,0.00,,,0.00,Wunderground v.1.15,2013-03-09 05:52:00,
2013-03-09 00:55:00,33.4,24.3,30.33,NNW,337,1.0,5.0,69,0.00,,,0.00,Wunderground v.1.15,2013-03-09 05:55:00,
2013-03-09 00:58:00,33.4,24.3,30.33,NNW,328,1.0,5.0,69,0.00,,,0.00,Wunderground v.1.15,2013-03-09 05:58:00,
2013-03-09 01:01:00,33.4,24.3,30.33,NNW,328,1.0,7.0,69,0.00,,,0.00,Wunderground v.1.15,2013-03-09 06:01:00,
2013-03-09 01:03:00,33.3,24.2,30.33,NNW,331,1.0,7.0,69,0.00,,,0.00,Wunderground v.1.15,2013-03-09 06:03:00,
2013-03-09 01:05:00,33.3,24.2,30.34,NNW,331,0.0,7.0,69,0.00,,,0.00,Wunderground v.1.15,2013-03-09 06:05:00,
2013-03-09 01:07:00,33.3,24.2,30.34,NNW,329,0.0,7.0,69,0.00,,,0.00,Wunderground v.1.15,2013-03-09 06:07:00,
2013-03-09 01:09:00,33.2,24.1,30.34,NNW,329,0.0,7.0,69,0.00,,,0.00,Wunderground v.1.15,2013-03-09 06:09:00,
2013-03-09 01:11:00,33.2,24.1,30.34,NNW,329,0.0,0.0,69,0.00,,,0.00,Wunderground v.1.15,2013-03-09 06:11:00,
2013-03-09 01:12:00,33.1,24.0,30.34,NNW,328,0.0,0.0,69,0.00,,,0.00,Wunderground v.1.15,2013-03-09 06:12:00,
2013-03-09 01:16:00,32.9,24.2,30.34,NW,319,0.0,1.0,70,0.00,,,0.00,Wunderground v.1.15,2013-03-09 06:16:00,
2013-03-09 01:17:00,32.9,24.2,30.34,NW,319,0.0,1.0,70,0.00,,,0.00,Wunderground v.1.15,2013-03-09 06:17:00,
2013-03-09 01:18:00,32.8,24.1,30.34,NW,319,0.0,1.0,70,0.00,,,0.00,Wunderground v.1.15,2013-03-09 06:18:00,
2013-03-09 01:20:00,32.8,24.1,30.34,NW,319,0.0,0.0,70,0.00,,,0.00,Wunderground v.1.15,2013-03-09 06:20:00,
2013-03-09 01:25:00,32.6,23.9,30.34,NW,321,0.0,0.0,70,0.00,,,0.00,Wunderground v.1.15,2013-03-09 06:25:00,
2013-03-09 01:27:00,32.5,23.8,30.34,NW,321,0.0,0.0,70,0.00,,,0.00,Wunderground v.1.15,2013-03-09 06:27:00,
2013-03-09 01:28:00,32.4,23.7,30.34,NW,321,0.0,0.0,70,0.00,,,0.00,Wunderground v.1.15,2013-03-09 06:28:00,
2013-03-09 01:30:00,32.4,23.7,30.34,NW,306,0.0,0.0,70,0.00,,,0.00,Wunderground v.1.15,2013-03-09 06:30:00,
2013-03-09 01:32:00,32.4,23.7,30.34,NW,313,0.0,6.0,70,0.00,,,0.00,Wunderground v.1.15,2013-03-09 06:32:00,
2013-03-09 01:33:00,32.5,23.8,30.34,NW,313,0.0,6.0,70,0.00,,,0.00,Wunderground v.1.15,2013-03-09 06:33:00,
2013-03-09 01:38:00,32.4,23.7,30.33,NW,313,0.0,6.0,70,0.00,,,0.00,Wunderground v.1.15,2013-03-09 06:38:00,
2013-03-09 01:40:00,32.3,23.6,30.33,NW,313,0.0,0.0,70,0.00,,,0.00,Wunderground v.1.15,2013-03-09 06:40:00,
2013-03-09 01:42:00,32.2,23.8,30.33,NW,316,0.0,0.0,71,0.00,,,0.00,Wunderground v.1.15,2013-03-09 06:42:00,
2013-03-09 01:43:00,32.1,23.8,30.33,NW,315,0.0,0.0,71,0.00,,,0.00,Wunderground v.1.15,2013-03-09 06:43:00,
2013-03-09 01:44:00,32.1,23.8,30.33,NW,315,0.0,0.0,71,0.00,,,0.00,Wunderground v.1.15,2013-03-09 06:44:00,
2013-03-09 01:45:00,32.1,23.8,30.33,NW,318,0.0,0.0,71,0.00,,,0.00,Wunderground v.1.15,2013-03-09 06:45:00,
2013-03-09 01:47:00,32.0,23.7,30.33,NW,318,0.0,0.0,71,0.00,,,0.00,Wunderground v.1.15,2013-03-09 06:47:00,
2013-03-09 01:50:00,32.0,23.7,30.33,NW,317,0.0,0.0,71,0.00,,,0.00,Wunderground v.1.15,2013-03-09 06:50:00,
2013-03-09 01:51:00,31.9,23.6,30.33,NW,317,0.0,0.0,71,0.00,,,0.00,Wunderground v.1.15,2013-03-09 06:51:00,
2013-03-09 01:55:00,31.9,23.6,30.33,NNW,345,0.0,0.0,71,0.00,,,0.00,Wunderground v.1.15,2013-03-09 06:55:00,
2013-03-09 01:56:00,31.9,23.6,30.33,NNW,345,0.0,0.0,71,0.00,,,0.00,Wunderground v.1.15,2013-03-09 06:56:00,
2013-03-09 01:59:00,31.9,23.6,30.33,NNW,341,0.0,0.0,71,0.00,,,0.00,Wunderground v.1.15,2013-03-09 06:59:00,
2013-03-09 02:01:00,31.8,23.5,30.33,NNW,341,0.0,4.0,71,0.00,,,0.00,Wunderground v.1.15,2013-03-09 07:01:00,
2013-03-09 02:02:00,31.8,23.5,30.33,NW,318,0.0,4.0,71,0.00,,,0.00,Wunderground v.1.15,2013-03-09 07:02:00,
2013-03-09 02:03:00,31.8,23.5,30.33,NW,314,0.0,4.0,71,0.00,,,0.00,Wunderground v.1.15,2013-03-09 07:03:00,
2013-03-09 02:05:00,31.9,23.6,30.33,West,280,0.0,4.0,71,0.00,,,0.00,Wunderground v.1.15,2013-03-09 07:05:00,
2013-03-09 02:06:00,31.9,23.6,30.33,WNW,282,0.0,4.0,71,0.00,,,0.00,Wunderground v.1.15,2013-03-09 07:06:00,
2013-03-09 02:08:00,31.9,23.6,30.33,WNW,283,0.0,4.0,71,0.00,,,0.00,Wunderground v.1.15,2013-03-09 07:08:00,
2013-03-09 02:10:00,31.9,23.2,30.33,West,269,0.0,1.0,70,0.00,,,0.00,Wunderground v.1.15,2013-03-09 07:10:00,
2013-03-09 02:13:00,31.8,23.5,30.33,NW,324,0.0,1.0,71,0.00,,,0.00,Wunderground v.1.15,2013-03-09 07:13:00,
2013-03-09 02:15:00,31.8,23.5,30.33,NNW,329,0.0,2.0,71,0.00,,,0.00,Wunderground v.1.15,2013-03-09 07:15:00,
2013-03-09 02:17:00,31.8,23.5,30.33,NW,310,1.0,3.0,71,0.00,,,0.00,Wunderground v.1.15,2013-03-09 07:17:00,
2013-03-09 02:19:00,31.8,23.5,30.33,NW,310,1.0,3.0,71,0.00,,,0.00,Wunderground v.1.15,2013-03-09 07:19:00,
2013-03-09 02:23:00,31.7,23.4,30.33,NW,318,1.0,1.0,71,0.00,,,0.00,Wunderground v.1.15,2013-03-09 07:23:00,
2013-03-09 02:25:00,31.7,23.4,30.33,NW,316,1.0,4.0,71,0.00,,,0.00,Wunderground v.1.15,2013-03-09 07:25:00,
2013-03-09 02:26:00,31.6,23.3,30.33,NW,315,1.0,4.0,71,0.00,,,0.00,Wunderground v.1.15,2013-03-09 07:26:00,
2013-03-09 02:28:00,31.6,23.3,30.33,NW,316,0.0,4.0,71,0.00,,,0.00,Wunderground v.1.15,2013-03-09 07:28:00,
2013-03-09 02:30:00,31.5,23.2,30.33,NW,316,0.0,0.0,71,0.00,,,0.00,Wunderground v.1.15,2013-03-09 07:30:00,
2013-03-09 02:32:00,31.4,23.1,30.33,NW,316,0.0,4.0,71,0.00,,,0.00,Wunderground v.1.15,2013-03-09 07:32:00,
2013-03-09 02:33:00,31.3,23.0,30.33,NW,316,0.0,4.0,71,0.00,,,0.00,Wunderground v.1.15,2013-03-09 07:33:00,
2013-03-09 02:37:00,31.2,22.9,30.33,NW,312,0.0,4.0,71,0.00,,,0.00,Wunderground v.1.15,2013-03-09 07:37:00,
2013-03-09 02:41:00,31.2,22.9,30.33,NW,306,1.0,1.0,71,0.00,,,0.00,Wunderground v.1.15,2013-03-09 07:41:00,
2013-03-09 02:43:00,31.3,23.0,30.33,NW,307,1.0,5.0,71,0.00,,,0.00,Wunderground v.1.15,2013-03-09 07:43:00,
2013-03-09 02:44:00,31.3,23.0,30.33,NW,310,1.0,5.0,71,0.00,,,0.00,Wunderground v.1.15,2013-03-09 07:44:00,
2013-03-09 02:45:00,31.4,23.1,30.33,NNW,343,1.0,5.0,71,0.00,,,0.00,Wunderground v.1.15,2013-03-09 07:45:00,
2013-03-09 02:49:00,31.4,23.1,30.33,NW,314,1.0,5.0,71,0.00,,,0.00,Wunderground v.1.15,2013-03-09 07:49:00,
2013-03-09 02:50:00,31.4,23.1,30.33,NW,315,1.0,1.0,71,0.00,,,0.00,Wunderground v.1.15,2013-03-09 07:50:00,
2013-03-09 02:53:00,31.4,23.1,30.33,NW,308,1.0,1.0,71,0.00,,,0.00,Wunderground v.1.15,2013-03-09 07:53:00,
2013-03-09 02:54:00,31.4,23.1,30.33,NW,308,1.0,1.0,71,0.00,,,0.00,Wunderground v.1.15,2013-03-09 07:54:00,
2013-03-09 02:58:00,31.4,23.1,30.32,West,259,1.0,5.0,71,0.00,,,0.00,Wunderground v.1.15,2013-03-09 07:58:00,
2013-03-09 02:59:00,31.4,23.1,30.32,West,267,1.0,5.0,71,0.00,,,0.00,Wunderground v.1.15,2013-03-09 07:59:00,
2013-03-09 03:01:00,31.3,23.0,30.32,NNW,327,1.0,3.0,71,0.00,,,0.00,Wunderground v.1.15,2013-03-09 08:01:00,
2013-03-09 03:03:00,31.3,23.0,30.32,NW,307,2.0,6.0,71,0.00,,,0.00,Wunderground v.1.15,2013-03-09 08:03:00,
2013-03-09 03:05:00,31.2,22.9,30.33,WSW,257,2.0,6.0,71,0.00,,,0.00,Wunderground v.1.15,2013-03-09 08:05:00,
2013-03-09 03:06:00,31.2,22.9,30.33,NW,306,1.0,6.0,71,0.00,,,0.00,Wunderground v.1.15,2013-03-09 08:06:00,
2013-03-09 03:07:00,31.1,22.8,30.33,WNW,303,1.0,6.0,71,0.00,,,0.00,Wunderground v.1.15,2013-03-09 08:07:00,
2013-03-09 03:08:00,31.1,22.8,30.33,NW,313,2.0,6.0,71,0.00,,,0.00,Wunderground v.1.15,2013-03-09 08:08:00,
2013-03-09 03:12:00,30.9,22.6,30.33,West,281,1.0,6.0,71,0.00,,,0.00,Wunderground v.1.15,2013-03-09 08:12:00,
2013-03-09 03:16:00,30.9,22.6,30.32,NW,310,2.0,6.0,71,0.00,,,0.00,Wunderground v.1.15,2013-03-09 08:16:00,
2013-03-09 03:17:00,30.9,22.6,30.32,NW,306,2.0,6.0,71,0.00,,,0.00,Wunderground v.1.15,2013-03-09 08:17:00,
2013-03-09 03:18:00,30.9,22.6,30.32,NNW,327,2.0,6.0,71,0.00,,,0.00,Wunderground v.1.15,2013-03-09 08:18:00,
2013-03-09 03:23:00,30.8,22.8,30.32,WNW,299,2.0,10.0,72,0.00,,,0.00,Wunderground v.1.15,2013-03-09 08:23:00,
2013-03-09 03:24:00,30.8,22.8,30.32,WNW,298,2.0,10.0,72,0.00,,,0.00,Wunderground v.1.15,2013-03-09 08:24:00,
2013-03-09 03:27:00,30.8,22.5,30.32,West,275,2.0,10.0,71,0.00,,,0.00,Wunderground v.1.15,2013-03-09 08:27:00,
2013-03-09 03:28:00,30.8,22.5,30.32,NW,319,2.0,10.0,71,0.00,,,0.00,Wunderground v.1.15,2013-03-09 08:28:00,
2013-03-09 03:30:00,30.9,22.6,30.32,NW,322,3.0,3.0,71,0.00,,,0.00,Wunderground v.1.15,2013-03-09 08:30:00,
2013-03-09 03:31:00,30.9,22.6,30.32,NNW,329,3.0,5.0,71,0.00,,,0.00,Wunderground v.1.15,2013-03-09 08:31:00,
2013-03-09 03:34:00,30.9,22.6,30.31,NNW,329,3.0,6.0,71,0.00,,,0.00,Wunderground v.1.15,2013-03-09 08:34:00,
2013-03-09 03:36:00,30.9,22.6,30.31,NNW,338,3.0,6.0,71,0.00,,,0.00,Wunderground v.1.15,2013-03-09 08:36:00,
2013-03-09 03:40:00,30.8,22.5,30.31,NW,323,3.0,5.0,71,0.00,,,0.00,Wunderground v.1.15,2013-03-09 08:40:00,
2013-03-09 03:43:00,30.8,22.5,30.31,NNW,334,3.0,5.0,71,0.00,,,0.00,Wunderground v.1.15,2013-03-09 08:43:00,
2013-03-09 03:44:00,30.7,22.4,30.31,NW,318,3.0,5.0,71,0.00,,,0.00,Wunderground v.1.15,2013-03-09 08:44:00,
2013-03-09 03:45:00,30.7,22.4,30.31,WNW,303,3.0,5.0,71,0.00,,,0.00,Wunderground v.1.15,2013-03-09 08:45:00,
2013-03-09 03:47:00,30.6,22.3,30.31,WNW,301,2.0,5.0,71,0.00,,,0.00,Wunderground v.1.15,2013-03-09 08:47:00,
2013-03-09 03:48:00,30.6,22.3,30.31,NW,304,1.0,5.0,71,0.00,,,0.00,Wunderground v.1.15,2013-03-09 08:48:00,
2013-03-09 03:50:00,30.6,22.3,30.31,WNW,286,1.0,1.0,71,0.00,,,0.00,Wunderground v.1.15,2013-03-09 08:50:00,
2013-03-09 03:54:00,30.6,22.3,30.31,WNW,290,1.0,3.0,71,0.00,,,0.00,Wunderground v.1.15,2013-03-09 08:54:00,
2013-03-09 03:55:00,30.6,22.3,30.31,NW,315,1.0,3.0,71,0.00,,,0.00,Wunderground v.1.15,2013-03-09 08:55:00,
2013-03-09 03:56:00,30.7,22.4,30.31,NW,321,1.0,3.0,71,0.00,,,0.00,Wunderground v.1.15,2013-03-09 08:56:00,
2013-03-09 03:58:00,30.7,22.4,30.31,NW,311,1.0,3.0,71,0.00,,,0.00,Wunderground v.1.15,2013-03-09 08:58:00,
2013-03-09 03:59:00,30.7,22.4,30.31,NW,307,1.0,3.0,71,0.00,,,0.00,Wunderground v.1.15,2013-03-09 08:59:00,
2013-03-09 04:03:00,30.8,22.5,30.31,NNW,332,0.0,11.0,71,0.00,,,0.00,Wunderground v.1.15,2013-03-09 09:03:00,
2013-03-09 04:05:00,30.8,22.5,30.31,WNW,297,0.0,11.0,71,0.00,,,0.00,Wunderground v.1.15,2013-03-09 09:05:00,
2013-03-09 04:06:00,30.8,22.5,30.31,WNW,286,1.0,11.0,71,0.00,,,0.00,Wunderground v.1.15,2013-03-09 09:06:00,
2013-03-09 04:09:00,30.9,22.3,30.31,WNW,295,1.0,11.0,70,0.00,,,0.00,Wunderground v.1.15,2013-03-09 09:09:00,
2013-03-09 04:11:00,30.9,22.3,30.31,WNW,295,1.0,1.0,70,0.00,,,0.00,Wunderground v.1.15,2013-03-09 09:11:00,
2013-03-09 04:14:00,30.8,22.2,30.31,North,5,1.0,1.0,70,0.00,,,0.00,Wunderground v.1.15,2013-03-09 09:14:00,
2013-03-09 04:15:00,30.8,22.2,30.31,NNW,341,1.0,1.0,70,0.00,,,0.00,Wunderground v.1.15,2013-03-09 09:15:00,
2013-03-09 04:19:00,30.8,22.2,30.31,NNW,328,0.0,1.0,70,0.00,,,0.00,Wunderground v.1.15,2013-03-09 09:19:00,
2013-03-09 04:20:00,30.8,22.2,30.32,NW,325,0.0,4.0,70,0.00,,,0.00,Wunderground v.1.15,2013-03-09 09:20:00,
2013-03-09 04:24:00,30.7,22.4,30.32,NNW,327,1.0,6.0,71,0.00,,,0.00,Wunderground v.1.15,2013-03-09 09:24:00,
2013-03-09 04:26:00,30.7,22.4,30.32,NW,322,1.0,6.0,71,0.00,,,0.00,Wunderground v.1.15,2013-03-09 09:26:00,
2013-03-09 04:27:00,30.6,22.3,30.32,NW,325,1.0,6.0,71,0.00,,,0.00,Wunderground v.1.15,2013-03-09 09:27:00,
2013-03-09 04:29:00,30.5,22.2,30.32,NW,325,1.0,6.0,71,0.00,,,0.00,Wunderground v.1.15,2013-03-09 09:29:00,
2013-03-09 04:32:00,30.4,22.1,30.33,NW,323,1.0,9.0,71,0.00,,,0.00,Wunderground v.1.15,2013-03-09 09:32:00,
2013-03-09 04:34:00,30.3,22.0,30.33,NW,324,0.0,9.0,71,0.00,,,0.00,Wunderground v.1.15,2013-03-09 09:34:00,
2013-03-09 04:38:00,30.1,22.2,30.33,NW,323,0.0,9.0,72,0.00,,,0.00,Wunderground v.1.15,2013-03-09 09:38:00,
2013-03-09 04:40:00,30.1,22.2,30.33,NW,318,0.0,2.0,72,0.00,,,0.00,Wunderground v.1.15,2013-03-09 09:40:00,
2013-03-09 04:41:00,30.1,22.2,30.33,NW,318,0.0,2.0,72,0.00,,,0.00,Wunderground v.1.15,2013-03-09 09:41:00,
2013-03-09 04:42:00,30.1,22.2,30.33,NW,323,0.0,2.0,72,0.00,,,0.00,Wunderground v.1.15,2013-03-09 09:42:00,
2013-03-09 04:46:00,30.2,22.3,30.33,NNW,333,1.0,3.0,72,0.00,,,0.00,Wunderground v.1.15,2013-03-09 09:46:00,
2013-03-09 04:47:00,30.2,22.3,30.33,NNW,328,1.0,3.0,72,0.00,,,0.00,Wunderground v.1.15,2013-03-09 09:47:00,
2013-03-09 04:53:00,30.4,22.1,30.33,NW,310,2.0,3.0,71,0.00,,,0.00,Wunderground v.1.15,2013-03-09 09:53:00,
2013-03-09 04:54:00,30.4,22.1,30.33,NW,310,2.0,3.0,71,0.00,,,0.00,Wunderground v.1.15,2013-03-09 09:54:00,
2013-03-09 04:55:00,30.4,22.1,30.33,NW,314,2.0,4.0,71,0.00,,,0.00,Wunderground v.1.15,2013-03-09 09:55:00,
2013-03-09 04:58:00,30.4,22.1,30.33,NW,312,2.0,4.0,71,0.00,,,0.00,Wunderground v.1.15,2013-03-09 09:58:00,
2013-03-09 05:01:00,30.4,22.1,30.33,WNW,296,2.0,3.0,71,0.00,,,0.00,Wunderground v.1.15,2013-03-09 10:01:00,
2013-03-09 05:02:00,30.4,22.1,30.33,NNW,338,2.0,7.0,71,0.00,,,0.00,Wunderground v.1.15,2013-03-09 10:02:00,
2013-03-09 05:03:00,30.3,22.0,30.33,WNW,297,2.0,7.0,71,0.00,,,0.00,Wunderground v.1.15,2013-03-09 10:03:00,
2013-03-09 05:04:00,30.3,22.0,30.33,NNW,331,2.0,7.0,71,0.00,,,0.00,Wunderground v.1.15,2013-03-09 10:04:00,
2013-03-09 05:06:00,30.3,22.0,30.33,NNW,328,2.0,7.0,71,0.00,,,0.00,Wunderground v.1.15,2013-03-09 10:06:00,
2013-03-09 05:10:00,30.3,22.0,30.33,NW,312,2.0,3.0,71,0.00,,,0.00,Wunderground v.1.15,2013-03-09 10:10:00,
2013-03-09 05:12:00,30.3,22.0,30.34,NNW,330,2.0,6.0,71,0.00,,,0.00,Wunderground v.1.15,2013-03-09 10:12:00,
2013-03-09 05:15:00,30.3,22.0,30.34,NW,311,2.0,6.0,71,0.00,,,0.00,Wunderground v.1.15,2013-03-09 10:15:00,
2013-03-09 05:16:00,30.3,22.0,30.34,North,349,2.0,6.0,71,0.00,,,0.00,Wunderground v.1.15,2013-03-09 10:16:00,
2013-03-09 05:17:00,30.3,22.0,30.33,NW,317,3.0,8.0,71,0.00,,,0.00,Wunderground v.1.15,2013-03-09 10:17:00,
2013-03-09 05:20:00,30.4,22.1,30.34,NW,314,4.0,4.0,71,0.00,,,0.00,Wunderground v.1.15,2013-03-09 10:20:00,
2013-03-09 05:21:00,30.4,22.1,30.34,NNW,329,4.0,5.0,71,0.00,,,0.00,Wunderground v.1.15,2013-03-09 10:21:00,
2013-03-09 05:23:00,30.3,22.0,30.34,NW,319,5.0,5.0,71,0.00,,,0.00,Wunderground v.1.15,2013-03-09 10:23:00,
2013-03-09 05:26:00,30.2,21.9,30.34,NW,325,5.0,5.0,71,0.00,,,0.00,Wunderground v.1.15,2013-03-09 10:26:00,
2013-03-09 05:29:00,30.2,21.9,30.33,NW,311,3.0,5.0,71,0.00,,,0.00,Wunderground v.1.15,2013-03-09 10:29:00,
2013-03-09 05:31:00,30.1,22.2,30.33,NW,321,3.0,7.0,72,0.00,,,0.00,Wunderground v.1.15,2013-03-09 10:31:00,
2013-03-09 05:32:00,30.1,22.2,30.34,NW,323,3.0,7.0,72,0.00,,,0.00,Wunderground v.1.15,2013-03-09 10:32:00,
2013-03-09 05:33:00,30.1,22.2,30.34,WNW,302,2.0,7.0,72,0.00,,,0.00,Wunderground v.1.15,2013-03-09 10:33:00,
2013-03-09 05:35:00,30.1,22.2,30.33,NNW,348,2.0,7.0,72,0.00,,,0.00,Wunderground v.1.15,2013-03-09 10:35:00,
2013-03-09 05:38:00,30.2,21.9,30.33,NNW,331,2.0,7.0,71,0.00,,,0.00,Wunderground v.1.15,2013-03-09 10:38:00,
2013-03-09 05:40:00,30.3,23.6,30.34,NW,314,2.0,2.0,76,0.00,,,0.00,Wunderground v.1.15,2013-03-09 10:40:00,
2013-03-09 05:42:00,30.3,22.0,30.34,NW,321,2.0,4.0,71,0.00,,,0.00,Wunderground v.1.15,2013-03-09 10:42:00,
2013-03-09 05:44:00,30.3,22.0,30.34,NNW,327,3.0,5.0,71,0.00,,,0.00,Wunderground v.1.15,2013-03-09 10:44:00,
2013-03-09 05:46:00,30.3,22.0,30.34,NNW,331,3.0,5.0,71,0.00,,,0.00,Wunderground v.1.15,2013-03-09 10:46:00,
2013-03-09 05:48:00,30.2,21.9,30.34,NNW,330,2.0,5.0,71,0.00,,,0.00,Wunderground v.1.15,2013-03-09 10:48:00,
2013-03-09 05:53:00,30.1,21.8,30.34,NNW,332,1.0,2.0,71,0.00,,,0.00,Wunderground v.1.15,2013-03-09 10:53:00,
2013-03-09 05:54:00,30.1,21.8,30.34,NNW,331,1.0,2.0,71,0.00,,,0.00,Wunderground v.1.15,2013-03-09 10:54:00,
2013-03-09 05:58:00,29.9,21.6,30.34,NNW,332,0.0,2.0,71,0.00,,,0.00,Wunderground v.1.15,2013-03-09 10:58:00,
2013-03-09 06:00:00,29.8,21.5,30.34,NNW,333,0.0,0.0,71,0.00,,,0.00,Wunderground v.1.15,2013-03-09 11:00:00,
2013-03-09 06:01:00,29.8,21.5,30.34,NNW,331,0.0,12.0,71,0.00,,,0.00,Wunderground v.1.15,2013-03-09 11:01:00,
2013-03-09 06:06:00,29.6,21.7,30.34,NNW,331,0.0,12.0,72,0.00,,,0.00,Wunderground v.1.15,2013-03-09 11:06:00,
2013-03-09 06:07:00,29.6,21.7,30.34,NNW,331,0.0,12.0,72,0.00,,,0.00,Wunderground v.1.15,2013-03-09 11:07:00,
2013-03-09 06:08:00,29.5,21.6,30.34,NNW,331,0.0,12.0,72,0.00,,,0.00,Wunderground v.1.15,2013-03-09 11:08:00,
2013-03-09 06:09:00,29.5,21.6,30.34,NNW,329,0.0,12.0,72,0.00,,,0.00,Wunderground v.1.15,2013-03-09 11:09:00,
2013-03-09 06:12:00,29.4,21.5,30.34,NNW,334,1.0,4.0,72,0.00,,,0.00,Wunderground v.1.15,2013-03-09 11:12:00,
2013-03-09 06:14:00,29.5,21.6,30.34,NW,322,1.0,4.0,72,0.00,,,0.00,Wunderground v.1.15,2013-03-09 11:14:00,
2013-03-09 06:15:00,29.5,21.6,30.34,NNW,334,2.0,4.0,72,0.00,,,0.00,Wunderground v.1.15,2013-03-09 11:15:00,
2013-03-09 06:18:00,29.6,21.7,30.34,NNW,334,3.0,4.0,72,0.00,,,0.00,Wunderground v.1.15,2013-03-09 11:18:00,
2013-03-09 06:20:00,29.6,21.7,30.34,NNW,344,3.0,3.0,72,0.00,,,0.00,Wunderground v.1.15,2013-03-09 11:20:00,
2013-03-09 06:21:00,29.7,21.8,30.34,NNW,341,3.0,3.0,72,0.00,,,0.00,Wunderground v.1.15,2013-03-09 11:21:00,
2013-03-09 06:22:00,29.6,21.7,30.34,NNW,344,2.0,3.0,72,0.00,,,0.00,Wunderground v.1.15,2013-03-09 11:22:00,
2013-03-09 06:26:00,29.5,21.6,30.34,NNW,333,1.0,3.0,72,0.00,,,0.00,Wunderground v.1.15,2013-03-09 11:26:00,
2013-03-09 06:27:00,29.4,21.8,30.34,NNW,333,1.0,3.0,73,0.00,,,0.00,Wunderground v.1.15,2013-03-09 11:27:00,
2013-03-09 06:28:00,29.4,21.8,30.34,NNW,327,0.0,3.0,73,0.00,,,0.00,Wunderground v.1.15,2013-03-09 11:28:00,
2013-03-09 06:31:00,29.3,21.4,30.34,WSW,256,0.0,8.0,72,0.00,,,0.00,Wunderground v.1.15,2013-03-09 11:31:00,
2013-03-09 06:32:00,29.3,21.4,30.34,West,259,0.0,8.0,72,0.00,,,0.00,Wunderground v.1.15,2013-03-09 11:32:00,
2013-03-09 06:33:00,29.3,21.7,30.34,West,259,0.0,8.0,73,0.00,,,0.00,Wunderground v.1.15,2013-03-09 11:33:00,
2013-03-09 06:34:00,29.3,21.7,30.34,West,259,0.0,8.0,73,0.00,,,0.00,Wunderground v.1.15,2013-03-09 11:34:00,
2013-03-09 06:37:00,29.2,21.6,30.34,West,269,0.0,8.0,73,0.00,,,0.00,Wunderground v.1.15,2013-03-09 11:37:00,
2013-03-09 06:39:00,29.3,21.7,30.34,NW,304,0.0,8.0,73,0.00,,,0.00,Wunderground v.1.15,2013-03-09 11:39:00,
2013-03-09 06:40:00,29.3,21.4,30.34,NW,321,0.0,0.0,72,0.00,,,0.00,Wunderground v.1.15,2013-03-09 11:40:00,
2013-03-09 06:41:00,29.4,21.5,30.34,NW,321,0.0,0.0,72,0.00,,,0.00,Wunderground v.1.15,2013-03-09 11:41:00,
2013-03-09 06:43:00,29.4,21.8,30.34,NW,321,0.0,0.0,73,0.00,,,0.00,Wunderground v.1.15,2013-03-09 11:43:00,
2013-03-09 06:45:00,29.4,21.5,30.34,NW,321,0.0,0.0,72,0.00,,,0.00,Wunderground v.1.15,2013-03-09 11:45:00,
2013-03-09 06:48:00,29.3,21.4,30.34,NW,321,0.0,0.0,72,0.00,,,0.00,Wunderground v.1.15,2013-03-09 11:48:00,
2013-03-09 06:49:00,29.3,21.4,30.34,NW,321,0.0,0.0,72,0.00,,,0.00,Wunderground v.1.15,2013-03-09 11:49:00,
2013-03-09 06:52:00,29.2,21.3,30.34,NW,321,0.0,0.0,72,0.00,,,0.00,Wunderground v.1.15,2013-03-09 11:52:00,
2013-03-09 06:55:00,29.1,21.5,30.35,NW,321,0.0,0.0,73,0.00,,,0.00,Wunderground v.1.15,2013-03-09 11:55:00,
2013-03-09 06:57:00,29.1,21.5,30.35,NW,317,0.0,1.0,73,0.00,,,0.00,Wunderground v.1.15,2013-03-09 11:57:00,
2013-03-09 06:59:00,29.0,21.4,30.35,NW,317,0.0,1.0,73,0.00,,,0.00,Wunderground v.1.15,2013-03-09 11:59:00,
2013-03-09 07:01:00,29.0,21.4,30.35,NW,318,0.0,8.0,73,0.00,,,0.00,Wunderground v.1.15,2013-03-09 12:01:00,
2013-03-09 07:04:00,29.1,21.5,30.35,NW,319,0.0,8.0,73,0.00,,,0.00,Wunderground v.1.15,2013-03-09 12:04:00,
2013-03-09 07:06:00,29.2,21.6,30.35,NW,325,0.0,8.0,73,0.00,,,0.00,Wunderground v.1.15,2013-03-09 12:06:00,
2013-03-09 07:08:00,29.3,21.4,30.35,NW,325,0.0,8.0,72,0.00,,,0.00,Wunderground v.1.15,2013-03-09 12:08:00,
2013-03-09 07:09:00,29.3,21.4,30.35,NW,325,0.0,8.0,72,0.00,,,0.00,Wunderground v.1.15,2013-03-09 12:09:00,
2013-03-09 07:11:00,29.3,21.4,30.35,NW,322,0.0,1.0,72,0.00,,,0.00,Wunderground v.1.15,2013-03-09 12:11:00,
2013-03-09 07:13:00,29.4,21.5,30.35,NW,322,0.0,1.0,72,0.00,,,0.00,Wunderground v.1.15,2013-03-09 12:13:00,
2013-03-09 07:15:00,29.4,21.5,30.35,NW,322,0.0,1.0,72,0.00,,,0.00,Wunderground v.1.15,2013-03-09 12:15:00,
2013-03-09 07:16:00,29.4,21.5,30.35,NW,322,0.0,1.0,72,0.00,,,0.00,Wunderground v.1.15,2013-03-09 12:16:00,
2013-03-09 07:17:00,29.3,21.4,30.35,NW,322,0.0,1.0,72,0.00,,,0.00,Wunderground v.1.15,2013-03-09 12:17:00,
2013-03-09 07:18:00,29.3,21.4,30.35,NW,322,0.0,1.0,72,0.00,,,0.00,Wunderground v.1.15,2013-03-09 12:18:00,
2013-03-09 07:21:00,29.2,21.6,30.36,NW,322,0.0,0.0,73,0.00,,,0.00,Wunderground v.1.15,2013-03-09 12:21:00,
2013-03-09 07:23:00,29.0,21.4,30.36,NW,322,0.0,0.0,73,0.00,,,0.00,Wunderground v.1.15,2013-03-09 12:23:00,
2013-03-09 07:28:00,28.7,21.5,30.36,NW,322,0.0,0.0,74,0.00,,,0.00,Wunderground v.1.15,2013-03-09 12:28:00,
2013-03-09 07:29:00,28.7,21.5,30.36,NW,322,0.0,0.0,74,0.00,,,0.00,Wunderground v.1.15,2013-03-09 12:29:00,
2013-03-09 07:31:00,28.7,21.1,30.36,NW,321,0.0,4.0,73,0.00,,,0.00,Wunderground v.1.15,2013-03-09 12:31:00,
2013-03-09 07:33:00,28.8,21.6,30.36,NW,322,0.0,4.0,74,0.00,,,0.00,Wunderground v.1.15,2013-03-09 12:33:00,
2013-03-09 07:36:00,28.9,21.7,30.36,NW,323,0.0,4.0,74,0.00,,,0.00,Wunderground v.1.15,2013-03-09 12:36:00,
2013-03-09 07:37:00,28.9,21.7,30.36,NW,323,0.0,4.0,74,0.00,,,0.00,Wunderground v.1.15,2013-03-09 12:37:00,
2013-03-09 07:40:00,29.0,21.7,30.36,NW,321,0.0,0.0,74,0.00,,,0.00,Wunderground v.1.15,2013-03-09 12:40:00,
2013-03-09 07:42:00,29.0,21.7,30.36,NW,321,0.0,0.0,74,0.00,,,0.00,Wunderground v.1.15,2013-03-09 12:42:00,
2013-03-09 07:43:00,29.0,21.7,30.36,NW,321,0.0,0.0,74,0.00,,,0.00,Wunderground v.1.15,2013-03-09 12:43:00,
2013-03-09 07:45:00,28.9,21.7,30.36,NW,321,0.0,0.0,74,0.00,,,0.00,Wunderground v.1.15,2013-03-09 12:45:00,
2013-03-09 07:46:00,28.9,21.7,30.36,NW,321,0.0,0.0,74,0.00,,,0.00,Wunderground v.1.15,2013-03-09 12:46:00,
2013-03-09 07:48:00,28.8,21.6,30.36,NW,321,0.0,0.0,74,0.00,,,0.00,Wunderground v.1.15,2013-03-09 12:48:00,
2013-03-09 07:53:00,29.0,21.7,30.36,NW,321,0.0,0.0,74,0.00,,,0.00,Wunderground v.1.15,2013-03-09 12:53:00,
2013-03-09 07:54:00,29.1,21.8,30.36,NW,321,0.0,0.0,74,0.00,,,0.00,Wunderground v.1.15,2013-03-09 12:54:00,
2013-03-09 07:55:00,29.2,21.9,30.36,NW,321,0.0,0.0,74,0.00,,,0.00,Wunderground v.1.15,2013-03-09 12:55:00,
2013-03-09 07:56:00,29.3,21.7,30.36,NW,321,0.0,0.0,73,0.00,,,0.00,Wunderground v.1.15,2013-03-09 12:56:00,
2013-03-09 08:00:00,29.7,22.1,30.36,NW,321,0.0,0.0,73,0.00,,,0.00,Wunderground v.1.15,2013-03-09 13:00:00,
2013-03-09 08:02:00,29.9,22.0,30.36,NW,322,0.0,5.0,72,0.00,,,0.00,Wunderground v.1.15,2013-03-09 13:02:00,
2013-03-09 08:03:00,30.1,22.2,30.36,NW,323,0.0,5.0,72,0.00,,,0.00,Wunderground v.1.15,2013-03-09 13:03:00,
2013-03-09 08:08:00,30.5,22.2,30.37,NW,323,0.0,5.0,71,0.00,,,0.00,Wunderground v.1.15,2013-03-09 13:08:00,
2013-03-09 08:09:00,30.6,22.3,30.37,NW,323,0.0,5.0,71,0.00,,,0.00,Wunderground v.1.15,2013-03-09 13:09:00,
2013-03-09 08:10:00,30.7,22.4,30.37,NW,323,0.0,0.0,71,0.00,,,0.00,Wunderground v.1.15,2013-03-09 13:10:00,
2013-03-09 08:14:00,31.0,22.4,30.37,NW,323,0.0,0.0,70,0.00,,,0.00,Wunderground v.1.15,2013-03-09 13:14:00,
2013-03-09 08:15:00,31.0,22.4,30.37,NW,323,0.0,0.0,70,0.00,,,0.00,Wunderground v.1.15,2013-03-09 13:15:00,
2013-03-09 08:17:00,31.1,22.5,30.37,NW,323,0.0,0.0,70,0.00,,,0.00,Wunderground v.1.15,2013-03-09 13:17:00,
2013-03-09 08:21:00,31.4,22.7,30.37,NW,310,0.0,4.0,70,0.00,,,0.00,Wunderground v.1.15,2013-03-09 13:21:00,
2013-03-09 08:22:00,31.5,22.5,30.37,NW,323,0.0,4.0,69,0.00,,,0.00,Wunderground v.1.15,2013-03-09 13:22:00,
2013-03-09 08:24:00,31.6,22.6,30.38,WNW,300,1.0,4.0,69,0.00,,,0.00,Wunderground v.1.15,2013-03-09 13:24:00,
2013-03-09 08:26:00,31.7,22.7,30.38,NW,305,1.0,4.0,69,0.00,,,0.00,Wunderground v.1.15,2013-03-09 13:26:00,
2013-03-09 08:30:00,31.9,23.2,30.38,NW,310,1.0,1.0,70,0.00,,,0.00,Wunderground v.1.15,2013-03-09 13:30:00,
2013-03-09 08:31:00,31.9,22.9,30.38,NW,319,1.0,4.0,69,0.00,,,0.00,Wunderground v.1.15,2013-03-09 13:31:00,
2013-03-09 08:33:00,32.0,23.0,30.39,NNW,333,1.0,4.0,69,0.00,,,0.00,Wunderground v.1.15,2013-03-09 13:33:00,
2013-03-09 08:35:00,32.1,23.1,30.39,NNW,341,1.0,5.0,69,0.00,,,0.00,Wunderground v.1.15,2013-03-09 13:35:00,
2013-03-09 08:37:00,32.2,23.2,30.39,NNW,327,2.0,5.0,69,0.00,,,0.00,Wunderground v.1.15,2013-03-09 13:37:00,
2013-03-09 08:38:00,32.3,23.3,30.39,NNW,327,2.0,5.0,69,0.00,,,0.00,Wunderground v.1.15,2013-03-09 13:38:00,
2013-03-09 08:40:00,32.4,23.4,30.39,WSW,253,2.0,2.0,69,0.00,,,0.00,Wunderground v.1.15,2013-03-09 13:40:00,
2013-03-09 08:43:00,32.5,23.5,30.39,WNW,294,1.0,2.0,69,0.00,,,0.00,Wunderground v.1.15,2013-03-09 13:43:00,
2013-03-09 08:45:00,32.6,23.6,30.39,WNW,294,1.0,3.0,69,0.00,,,0.00,Wunderground v.1.15,2013-03-09 13:45:00,
2013-03-09 08:47:00,32.7,23.3,30.39,WNW,300,0.0,3.0,68,0.00,,,0.00,Wunderground v.1.15,2013-03-09 13:47:00,
2013-03-09 08:48:00,32.8,23.7,30.39,North,350,0.0,3.0,69,0.00,,,0.00,Wunderground v.1.15,2013-03-09 13:48:00,
2013-03-09 08:49:00,32.9,23.8,30.39,NNW,332,0.0,3.0,69,0.00,,,0.00,Wunderground v.1.15,2013-03-09 13:49:00,
2013-03-09 08:52:00,33.1,23.7,30.39,NNW,332,1.0,1.0,68,0.00,,,0.00,Wunderground v.1.15,2013-03-09 13:52:00,
2013-03-09 08:54:00,33.2,23.8,30.39,NW,320,1.0,1.0,68,0.00,,,0.00,Wunderground v.1.15,2013-03-09 13:54:00,
2013-03-09 08:56:00,33.3,23.9,30.39,NW,311,0.0,1.0,68,0.00,,,0.00,Wunderground v.1.15,2013-03-09 13:56:00,
2013-03-09 08:58:00,33.4,24.0,30.39,NNW,337,1.0,4.0,68,0.00,,,0.00,Wunderground v.1.15,2013-03-09 13:58:00,
2013-03-09 09:02:00,33.7,23.9,30.39,NNW,329,0.0,6.0,67,0.00,,,0.00,Wunderground v.1.15,2013-03-09 14:02:00,
2013-03-09 09:05:00,33.9,23.7,30.39,NNW,328,0.0,6.0,66,0.00,,,0.00,Wunderground v.1.15,2013-03-09 14:05:00,
2013-03-09 09:06:00,34.0,24.2,30.39,NNW,327,0.0,6.0,67,0.00,,,0.00,Wunderground v.1.15,2013-03-09 14:06:00,
2013-03-09 09:07:00,34.1,24.3,30.39,NNW,328,0.0,6.0,67,0.00,,,0.00,Wunderground v.1.15,2013-03-09 14:07:00,
2013-03-09 09:09:00,34.2,24.4,30.39,NNW,328,0.0,6.0,67,0.00,,,0.00,Wunderground v.1.15,2013-03-09 14:09:00,
2013-03-09 09:11:00,34.3,24.1,30.39,NNW,328,0.0,0.0,66,0.00,,,0.00,Wunderground v.1.15,2013-03-09 14:11:00,
2013-03-09 09:12:00,34.4,24.2,30.39,NNW,329,0.0,0.0,66,0.00,,,0.00,Wunderground v.1.15,2013-03-09 14:12:00,
2013-03-09 09:14:00,34.4,24.2,30.39,NNW,329,0.0,0.0,66,0.00,,,0.00,Wunderground v.1.15,2013-03-09 14:14:00,
2013-03-09 09:15:00,34.4,24.2,30.39,NNW,329,0.0,0.0,66,0.00,,,0.00,Wunderground v.1.15,2013-03-09 14:15:00,
2013-03-09 09:17:00,34.5,23.9,30.39,NNW,329,0.0,0.0,65,0.00,,,0.00,Wunderground v.1.15,2013-03-09 14:17:00,
2013-03-09 09:20:00,34.8,24.2,30.39,NNW,329,0.0,0.0,65,0.00,,,0.00,Wunderground v.1.15,2013-03-09 14:20:00,
2013-03-09 09:23:00,35.2,24.6,30.39,NNW,329,0.0,0.0,65,0.00,,,0.00,Wunderground v.1.15,2013-03-09 14:23:00,
2013-03-09 09:24:00,35.2,24.6,30.39,NNW,329,0.0,0.0,65,0.00,,,0.00,Wunderground v.1.15,2013-03-09 14:24:00,
2013-03-09 09:26:00,35.4,24.8,30.39,NW,321,0.0,2.0,65,0.00,,,0.00,Wunderground v.1.15,2013-03-09 14:26:00,
2013-03-09 09:28:00,35.5,24.9,30.39,NW,321,0.0,2.0,65,0.00,,,0.00,Wunderground v.1.15,2013-03-09 14:28:00,
2013-03-09 09:29:00,35.5,24.9,30.39,NW,321,0.0,2.0,65,0.00,,,0.00,Wunderground v.1.15,2013-03-09 14:29:00,
2013-03-09 09:31:00,35.5,24.5,30.39,NW,321,0.0,8.0,64,0.00,,,0.00,Wunderground v.1.15,2013-03-09 14:31:00,
2013-03-09 09:32:00,35.5,24.5,30.39,NW,321,0.0,8.0,64,0.00,,,0.00,Wunderground v.1.15,2013-03-09 14:32:00,
2013-03-09 09:33:00,35.6,24.6,30.39,NW,321,0.0,8.0,64,0.00,,,0.00,Wunderground v.1.15,2013-03-09 14:33:00,
2013-03-09 09:36:00,35.7,24.7,30.39,NW,322,0.0,8.0,64,0.00,,,0.00,Wunderground v.1.15,2013-03-09 14:36:00,
2013-03-09 09:37:00,35.7,24.7,30.39,NW,322,0.0,8.0,64,0.00,,,0.00,Wunderground v.1.15,2013-03-09 14:37:00,
2013-03-09 09:38:00,35.8,24.8,30.39,NW,322,0.0,8.0,64,0.00,,,0.00,Wunderground v.1.15,2013-03-09 14:38:00,
2013-03-09 09:43:00,36.2,25.2,30.39,NW,311,0.0,1.0,64,0.00,,,0.00,Wunderground v.1.15,2013-03-09 14:43:00,
2013-03-09 09:44:00,36.2,24.8,30.39,NW,311,0.0,1.0,63,0.00,,,0.00,Wunderground v.1.15,2013-03-09 14:44:00,
2013-03-09 09:47:00,36.4,25.0,30.39,NW,315,1.0,1.0,63,0.00,,,0.00,Wunderground v.1.15,2013-03-09 14:47:00,
2013-03-09 09:49:00,36.5,25.1,30.39,NW,315,1.0,1.0,63,0.00,,,0.00,Wunderground v.1.15,2013-03-09 14:49:00,
2013-03-09 09:50:00,36.6,24.8,30.39,NW,317,1.0,1.0,62,0.00,,,0.00,Wunderground v.1.15,2013-03-09 14:50:00,
2013-03-09 09:52:00,36.7,25.3,30.39,NW,317,1.0,1.0,63,0.00,,,0.00,Wunderground v.1.15,2013-03-09 14:52:00,
2013-03-09 09:54:00,36.9,25.1,30.39,NW,318,1.0,1.0,62,0.00,,,0.00,Wunderground v.1.15,2013-03-09 14:54:00,
2013-03-09 09:56:00,37.1,25.3,30.39,NW,323,1.0,1.0,62,0.00,,,0.00,Wunderground v.1.15,2013-03-09 14:56:00,
2013-03-09 09:58:00,37.4,25.6,30.38,NW,323,0.0,1.0,62,0.00,,,0.00,Wunderground v.1.15,2013-03-09 14:58:00,
2013-03-09 10:00:00,37.7,25.8,30.38,NW,323,0.0,0.0,62,0.00,,,0.00,Wunderground v.1.15,2013-03-09 15:00:00,
2013-03-09 10:01:00,37.8,25.9,30.38,NW,322,0.0,1.0,62,0.00,,,0.00,Wunderground v.1.15,2013-03-09 15:01:00,
2013-03-09 10:02:00,37.9,26.0,30.39,NW,323,0.0,4.0,62,0.00,,,0.00,Wunderground v.1.15,2013-03-09 15:02:00,
2013-03-09 10:03:00,38.1,25.8,30.39,NW,319,0.0,4.0,61,0.00,,,0.00,Wunderground v.1.15,2013-03-09 15:03:00,
2013-03-09 10:06:00,38.3,25.6,30.39,NW,307,1.0,4.0,60,0.00,,,0.00,Wunderground v.1.15,2013-03-09 15:06:00,
2013-03-09 10:08:00,38.5,25.8,30.39,NW,304,0.0,4.0,60,0.00,,,0.00,Wunderground v.1.15,2013-03-09 15:08:00,
2013-03-09 10:09:00,38.5,25.8,30.39,NW,304,0.0,4.0,60,0.00,,,0.00,Wunderground v.1.15,2013-03-09 15:09:00,
2013-03-09 10:11:00,38.6,26.3,30.39,NW,308,1.0,1.0,61,0.00,,,0.00,Wunderground v.1.15,2013-03-09 15:11:00,
2013-03-09 10:12:00,38.7,26.4,30.39,NW,313,1.0,4.0,61,0.00,,,0.00,Wunderground v.1.15,2013-03-09 15:12:00,
2013-03-09 10:14:00,38.9,26.2,30.39,NW,315,1.0,4.0,60,0.00,,,0.00,Wunderground v.1.15,2013-03-09 15:14:00,
2013-03-09 10:15:00,39.0,26.7,30.39,NW,315,0.0,4.0,61,0.00,,,0.00,Wunderground v.1.15,2013-03-09 15:15:00,
2013-03-09 10:16:00,39.1,26.8,30.39,NW,314,0.0,4.0,61,0.00,,,0.00,Wunderground v.1.15,2013-03-09 15:16:00,
2013-03-09 10:20:00,39.3,26.6,30.39,WNW,286,0.0,0.0,60,0.00,,,0.00,Wunderground v.1.15,2013-03-09 15:20:00,
2013-03-09 10:21:00,39.4,26.7,30.39,WNW,290,0.0,1.0,60,0.00,,,0.00,Wunderground v.1.15,2013-03-09 15:21:00,
2013-03-09 10:22:00,39.5,26.8,30.39,WNW,292,0.0,3.0,60,0.00,,,0.00,Wunderground v.1.15,2013-03-09 15:22:00,
2013-03-09 10:23:00,39.5,26.8,30.39,WNW,303,0.0,3.0,60,0.00,,,0.00,Wunderground v.1.15,2013-03-09 15:23:00,
2013-03-09 10:26:00,39.5,26.3,30.39,NNW,333,1.0,3.0,59,0.00,,,0.00,Wunderground v.1.15,2013-03-09 15:26:00,
2013-03-09 10:27:00,39.5,26.8,30.39,NNW,331,1.0,3.0,60,0.00,,,0.00,Wunderground v.1.15,2013-03-09 15:27:00,
2013-03-09 10:31:00,39.6,26.8,30.38,NW,304,1.0,4.0,60,0.00,,,0.00,Wunderground v.1.15,2013-03-09 15:31:00,
2013-03-09 10:32:00,39.6,26.8,30.38,WNW,292,1.0,4.0,60,0.00,,,0.00,Wunderground v.1.15,2013-03-09 15:32:00,
2013-03-09 10:33:00,39.6,26.8,30.39,WNW,292,1.0,4.0,60,0.00,,,0.00,Wunderground v.1.15,2013-03-09 15:33:00,
2013-03-09 10:34:00,39.7,26.5,30.39,WNW,292,1.0,4.0,59,0.00,,,0.00,Wunderground v.1.15,2013-03-09 15:34:00,
2013-03-09 10:38:00,39.8,27.0,30.39,NW,309,0.0,4.0,60,0.00,,,0.00,Wunderground v.1.15,2013-03-09 15:38:00,
2013-03-09 10:39:00,39.9,27.1,30.39,NW,309,0.0,4.0,60,0.00,,,0.00,Wunderground v.1.15,2013-03-09 15:39:00,
2013-03-09 10:41:00,40.0,27.2,30.39,NW,308,0.0,0.0,60,0.00,,,0.00,Wunderground v.1.15,2013-03-09 15:41:00,
2013-03-09 10:44:00,40.1,27.7,30.38,NW,308,0.0,0.0,61,0.00,,,0.00,Wunderground v.1.15,2013-03-09 15:44:00,
2013-03-09 10:46:00,40.3,27.5,30.38,NW,309,0.0,1.0,60,0.00,,,0.00,Wunderground v.1.15,2013-03-09 15:46:00,
2013-03-09 10:48:00,40.6,27.8,30.38,NW,310,0.0,3.0,60,0.00,,,0.00,Wunderground v.1.15,2013-03-09 15:48:00,
2013-03-09 10:49:00,40.7,27.9,30.38,NW,310,0.0,3.0,60,0.00,,,0.00,Wunderground v.1.15,2013-03-09 15:49:00,
2013-03-09 10:55:00,41.2,27.9,30.38,NW,310,0.0,0.0,59,0.00,,,0.00,Wunderground v.1.15,2013-03-09 15:55:00,
2013-03-09 10:56:00,41.3,28.0,30.37,NW,310,0.0,2.0,59,0.00,,,0.00,Wunderground v.1.15,2013-03-09 15:56:00,
2013-03-09 10:58:00,41.7,28.4,30.37,NW,311,1.0,3.0,59,0.00,,,0.00,Wunderground v.1.15,2013-03-09 15:58:00,
2013-03-09 11:01:00,42.0,28.3,30.37,NNW,335,1.0,5.0,58,0.00,,,0.00,Wunderground v.1.15,2013-03-09 16:01:00,
2013-03-09 11:02:00,42.3,29.0,30.37,NNW,335,1.0,5.0,59,0.00,,,0.00,Wunderground v.1.15,2013-03-09 16:02:00,
2013-03-09 11:03:00,42.5,29.2,30.37,WNW,295,1.0,5.0,59,0.00,,,0.00,Wunderground v.1.15,2013-03-09 16:03:00,
2013-03-09 11:08:00,42.8,29.0,30.37,WNW,297,1.0,5.0,58,0.00,,,0.00,Wunderground v.1.15,2013-03-09 16:08:00,
2013-03-09 11:11:00,43.3,29.5,30.37,WNW,299,0.0,0.0,58,0.00,,,0.00,Wunderground v.1.15,2013-03-09 16:11:00,
2013-03-09 11:13:00,43.6,29.8,30.37,WNW,299,0.0,0.0,58,0.00,,,0.00,Wunderground v.1.15,2013-03-09 16:13:00,
2013-03-09 11:16:00,44.0,30.2,30.37,WNW,299,0.0,0.0,58,0.00,,,0.00,Wunderground v.1.15,2013-03-09 16:16:00,
2013-03-09 11:18:00,44.3,30.0,30.37,WNW,299,0.0,0.0,57,0.00,,,0.00,Wunderground v.1.15,2013-03-09 16:18:00,
2013-03-09 11:19:00,44.3,29.6,30.37,WNW,299,0.0,0.0,56,0.00,,,0.00,Wunderground v.1.15,2013-03-09 16:19:00,
2013-03-09 11:21:00,44.6,30.3,30.37,WNW,299,0.0,0.0,57,0.00,,,0.00,Wunderground v.1.15,2013-03-09 16:21:00,
2013-03-09 11:23:00,45.0,30.7,30.37,ESE,122,0.0,5.0,57,0.00,,,0.00,Wunderground v.1.15,2013-03-09 16:23:00,
2013-03-09 11:24:00,45.1,29.4,30.37,ESE,106,0.0,5.0,54,0.00,,,0.00,Wunderground v.1.15,2013-03-09 16:24:00,
2013-03-09 11:26:00,45.5,29.8,30.36,ESE,107,0.0,5.0,54,0.00,,,0.00,Wunderground v.1.15,2013-03-09 16:26:00,
2013-03-09 11:31:00,46.3,30.1,30.36,ESE,107,0.0,5.0,53,0.00,,,0.00,Wunderground v.1.15,2013-03-09 16:31:00,
2013-03-09 11:32:00,46.4,29.7,30.36,NNE,24,0.0,5.0,52,0.00,,,0.00,Wunderground v.1.15,2013-03-09 16:32:00,
2013-03-09 11:36:00,46.5,28.8,30.36,NE,48,0.0,5.0,50,0.00,,,0.00,Wunderground v.1.15,2013-03-09 16:36:00,
2013-03-09 11:37:00,46.5,29.3,30.36,NE,48,1.0,5.0,51,0.00,,,0.00,Wunderground v.1.15,2013-03-09 16:37:00,
2013-03-09 11:38:00,46.6,29.4,30.36,NE,48,1.0,5.0,51,0.00,,,0.00,Wunderground v.1.15,2013-03-09 16:38:00,
2013-03-09 11:41:00,46.7,28.5,30.36,NNE,15,1.0,2.0,49,0.00,,,0.00,Wunderground v.1.15,2013-03-09 16:41:00,
2013-03-09 11:43:00,46.7,28.0,30.36,NNE,16,1.0,2.0,48,0.00,,,0.00,Wunderground v.1.15,2013-03-09 16:43:00,
2013-03-09 11:45:00,46.7,28.5,30.36,North,355,1.0,2.0,49,0.00,,,0.00,Wunderground v.1.15,2013-03-09 16:45:00,
2013-03-09 11:48:00,46.8,29.1,30.36,East,85,1.0,3.0,50,0.00,,,0.00,Wunderground v.1.15,2013-03-09 16:48:00,
2013-03-09 11:49:00,46.9,29.2,30.36,East,85,1.0,3.0,50,0.00,,,0.00,Wunderground v.1.15,2013-03-09 16:49:00,
2013-03-09 11:54:00,47.2,30.9,30.36,NW,319,1.0,2.0,53,0.00,,,0.00,Wunderground v.1.15,2013-03-09 16:54:00,
2013-03-09 11:55:00,47.2,30.9,30.36,NW,320,1.0,2.0,53,0.00,,,0.00,Wunderground v.1.15,2013-03-09 16:55:00,
2013-03-09 12:00:00,47.0,30.7,30.36,West,279,0.0,0.0,53,0.00,,,0.00,Wunderground v.1.15,2013-03-09 17:00:00,
2013-03-09 12:02:00,47.0,31.2,30.36,West,279,0.0,6.0,54,0.00,,,0.00,Wunderground v.1.15,2013-03-09 17:02:00,
2013-03-09 12:03:00,47.1,31.3,30.36,West,279,0.0,6.0,54,0.00,,,0.00,Wunderground v.1.15,2013-03-09 17:03:00,
2013-03-09 12:06:00,47.0,30.7,30.36,WNW,291,0.0,6.0,53,0.00,,,0.00,Wunderground v.1.15,2013-03-09 17:06:00,
2013-03-09 12:08:00,46.9,30.6,30.36,NW,317,0.0,6.0,53,0.00,,,0.00,Wunderground v.1.15,2013-03-09 17:08:00,
2013-03-09 12:09:00,46.8,30.6,30.36,NNW,340,0.0,6.0,53,0.00,,,0.00,Wunderground v.1.15,2013-03-09 17:09:00,
2013-03-09 12:12:00,46.4,30.2,30.36,NNW,338,1.0,4.0,53,0.00,,,0.00,Wunderground v.1.15,2013-03-09 17:12:00,
2013-03-09 12:16:00,46.3,30.5,30.36,NNW,331,1.0,4.0,54,0.00,,,0.00,Wunderground v.1.15,2013-03-09 17:16:00,
2013-03-09 12:17:00,46.3,30.5,30.36,NNW,331,1.0,4.0,54,0.00,,,0.00,Wunderground v.1.15,2013-03-09 17:17:00,
2013-03-09 12:18:00,46.5,30.3,30.36,NNW,330,1.0,4.0,53,0.00,,,0.00,Wunderground v.1.15,2013-03-09 17:18:00,
2013-03-09 12:20:00,46.6,30.4,30.36,WNW,295,1.0,1.0,53,0.00,,,0.00,Wunderground v.1.15,2013-03-09 17:20:00,
2013-03-09 12:21:00,46.7,30.5,30.36,WNW,294,0.0,1.0,53,0.00,,,0.00,Wunderground v.1.15,2013-03-09 17:21:00,
2013-03-09 12:26:00,47.3,31.0,30.36,WNW,294,0.0,1.0,53,0.00,,,0.00,Wunderground v.1.15,2013-03-09 17:26:00,
2013-03-09 12:27:00,47.4,31.1,30.36,WNW,292,0.0,1.0,53,0.00,,,0.00,Wunderground v.1.15,2013-03-09 17:27:00,
2013-03-09 12:29:00,47.7,30.9,30.36,West,276,0.0,2.0,52,0.00,,,0.00,Wunderground v.1.15,2013-03-09 17:29:00,
2013-03-09 12:33:00,47.8,31.5,30.36,WNW,284,1.0,7.0,53,0.00,,,0.00,Wunderground v.1.15,2013-03-09 17:33:00,
2013-03-09 12:35:00,47.8,31.5,30.36,West,279,1.0,7.0,53,0.00,,,0.00,Wunderground v.1.15,2013-03-09 17:35:00,
2013-03-09 12:36:00,47.8,31.5,30.36,West,277,1.0,7.0,53,0.00,,,0.00,Wunderground v.1.15,2013-03-09 17:36:00,
2013-03-09 12:40:00,47.5,30.7,30.36,NNW,342,1.0,1.0,52,0.00,,,0.00,Wunderground v.1.15,2013-03-09 17:40:00,
2013-03-09 12:42:00,47.6,31.3,30.36,WSW,240,1.0,1.0,53,0.00,,,0.00,Wunderground v.1.15,2013-03-09 17:42:00,
2013-03-09 12:43:00,47.7,31.4,30.35,WSW,241,1.0,1.0,53,0.00,,,0.00,Wunderground v.1.15,2013-03-09 17:43:00,
2013-03-09 12:44:00,47.8,31.5,30.35,WNW,286,1.0,1.0,53,0.00,,,0.00,Wunderground v.1.15,2013-03-09 17:44:00,
2013-03-09 12:47:00,47.9,31.1,30.35,WNW,287,0.0,1.0,52,0.00,,,0.00,Wunderground v.1.15,2013-03-09 17:47:00,
2013-03-09 12:48:00,48.0,31.2,30.35,WNW,298,0.0,1.0,52,0.00,,,0.00,Wunderground v.1.15,2013-03-09 17:48:00,
2013-03-09 12:50:00,48.1,31.8,30.35,WNW,300,0.0,0.0,53,0.00,,,0.00,Wunderground v.1.15,2013-03-09 17:50:00,
2013-03-09 12:53:00,48.2,33.2,30.35,West,279,0.0,2.0,56,0.00,,,0.00,Wunderground v.1.15,2013-03-09 17:53:00,
2013-03-09 12:54:00,48.2,32.3,30.35,West,280,0.0,2.0,54,0.00,,,0.00,Wunderground v.1.15,2013-03-09 17:54:00,
2013-03-09 12:56:00,48.2,31.4,30.35,WNW,296,1.0,2.0,52,0.00,,,0.00,Wunderground v.1.15,2013-03-09 17:56:00,
2013-03-09 12:57:00,48.1,31.3,30.35,WNW,298,1.0,2.0,52,0.00,,,0.00,Wunderground v.1.15,2013-03-09 17:57:00,
2013-03-09 12:59:00,47.9,31.6,30.35,WNW,298,1.0,2.0,53,0.00,,,0.00,Wunderground v.1.15,2013-03-09 17:59:00,
2013-03-09 13:01:00,48.0,31.7,30.34,WNW,298,1.0,6.0,53,0.00,,,0.00,Wunderground v.1.15,2013-03-09 18:01:00,
2013-03-09 13:05:00,47.9,31.1,30.34,NW,318,1.0,6.0,52,0.00,,,0.00,Wunderground v.1.15,2013-03-09 18:05:00,
2013-03-09 13:09:00,47.8,31.5,30.34,WNW,302,1.0,6.0,53,0.00,,,0.00,Wunderground v.1.15,2013-03-09 18:09:00,
2013-03-09 13:10:00,47.9,31.6,30.34,WNW,302,1.0,1.0,53,0.00,,,0.00,Wunderground v.1.15,2013-03-09 18:10:00,
2013-03-09 13:13:00,48.2,31.4,30.34,West,279,1.0,2.0,52,0.00,,,0.00,Wunderground v.1.15,2013-03-09 18:13:00,
2013-03-09 13:15:00,48.4,32.0,30.33,West,277,0.0,4.0,53,0.00,,,0.00,Wunderground v.1.15,2013-03-09 18:15:00,
2013-03-09 13:19:00,48.6,31.3,30.33,SSW,198,1.0,4.0,51,0.00,,,0.00,Wunderground v.1.15,2013-03-09 18:19:00,
2013-03-09 13:20:00,48.7,31.4,30.33,SSW,200,1.0,1.0,51,0.00,,,0.00,Wunderground v.1.15,2013-03-09 18:20:00,
2013-03-09 13:24:00,49.0,32.1,30.33,SW,236,1.0,1.0,52,0.00,,,0.00,Wunderground v.1.15,2013-03-09 18:24:00,
2013-03-09 13:25:00,49.1,31.7,30.33,SW,236,1.0,1.0,51,0.00,,,0.00,Wunderground v.1.15,2013-03-09 18:25:00,
2013-03-09 13:28:00,49.1,32.2,30.33,WSW,237,0.0,1.0,52,0.00,,,0.00,Wunderground v.1.15,2013-03-09 18:28:00,
2013-03-09 13:33:00,49.3,32.4,30.33,NW,307,0.0,4.0,52,0.00,,,0.00,Wunderground v.1.15,2013-03-09 18:33:00,
2013-03-09 13:35:00,49.3,31.9,30.33,NNW,334,1.0,6.0,51,0.00,,,0.00,Wunderground v.1.15,2013-03-09 18:35:00,
2013-03-09 13:36:00,49.2,32.3,30.32,NNW,334,1.0,6.0,52,0.00,,,0.00,Wunderground v.1.15,2013-03-09 18:36:00,
2013-03-09 13:39:00,49.5,32.6,30.32,WNW,292,1.0,6.0,52,0.00,,,0.00,Wunderground v.1.15,2013-03-09 18:39:00,
2013-03-09 13:41:00,49.7,32.3,30.32,West,271,1.0,1.0,51,0.00,,,0.00,Wunderground v.1.15,2013-03-09 18:41:00,
2013-03-09 13:42:00,49.8,32.4,30.32,West,272,1.0,3.0,51,0.00,,,0.00,Wunderground v.1.15,2013-03-09 18:42:00,
2013-03-09 13:43:00,49.8,32.4,30.32,West,272,1.0,3.0,51,0.00,,,0.00,Wunderground v.1.15,2013-03-09 18:43:00,
2013-03-09 13:47:00,49.7,31.8,30.32,West,272,0.0,3.0,50,0.00,,,0.00,Wunderground v.1.15,2013-03-09 18:47:00,
2013-03-09 13:50:00,49.7,31.8,30.32,West,272,0.0,0.0,50,0.00,,,0.00,Wunderground v.1.15,2013-03-09 18:50:00,
2013-03-09 13:51:00,49.7,31.8,30.32,West,272,0.0,0.0,50,0.00,,,0.00,Wunderground v.1.15,2013-03-09 18:51:00,
2013-03-09 13:53:00,49.9,32.0,30.32,West,272,0.0,0.0,50,0.00,,,0.00,Wunderground v.1.15,2013-03-09 18:53:00,
2013-03-09 13:55:00,50.1,32.7,30.32,West,272,0.0,1.0,51,0.00,,,0.00,Wunderground v.1.15,2013-03-09 18:55:00,
2013-03-09 13:56:00,50.1,32.2,30.32,West,272,0.0,1.0,50,0.00,,,0.00,Wunderground v.1.15,2013-03-09 18:56:00,
2013-03-09 14:02:00,50.5,32.5,30.32,WNW,300,1.0,6.0,50,0.00,,,0.00,Wunderground v.1.15,2013-03-09 19:02:00,
2013-03-09 14:03:00,50.5,32.0,30.32,WNW,297,1.0,6.0,49,0.00,,,0.00,Wunderground v.1.15,2013-03-09 19:03:00,
2013-03-09 14:05:00,50.5,32.0,30.32,WNW,297,1.0,6.0,49,0.00,,,0.00,Wunderground v.1.15,2013-03-09 19:05:00,
2013-03-09 14:08:00,50.7,33.2,30.32,NW,318,1.0,6.0,51,0.00,,,0.00,Wunderground v.1.15,2013-03-09 19:08:00,
2013-03-09 14:10:00,50.8,33.3,30.32,NW,317,1.0,3.0,51,0.00,,,0.00,Wunderground v.1.15,2013-03-09 19:10:00,
2013-03-09 14:12:00,50.7,32.7,30.32,NW,319,1.0,3.0,50,0.00,,,0.00,Wunderground v.1.15,2013-03-09 19:12:00,
2013-03-09 14:13:00,50.6,32.6,30.32,NNW,329,2.0,3.0,50,0.00,,,0.00,Wunderground v.1.15,2013-03-09 19:13:00,
2013-03-09 14:15:00,50.6,32.6,30.32,WNW,296,2.0,3.0,50,0.00,,,0.00,Wunderground v.1.15,2013-03-09 19:15:00,
2013-03-09 14:18:00,50.8,33.3,30.32,WNW,288,1.0,3.0,51,0.00,,,0.00,Wunderground v.1.15,2013-03-09 19:18:00,
2013-03-09 14:20:00,50.9,32.9,30.32,WNW,288,1.0,1.0,50,0.00,,,0.00,Wunderground v.1.15,2013-03-09 19:20:00,
2013-03-09 14:21:00,51.0,33.5,30.32,West,281,1.0,2.0,51,0.00,,,0.00,Wunderground v.1.15,2013-03-09 19:21:00,
2013-03-09 14:22:00,51.0,32.5,30.32,West,281,1.0,2.0,49,0.00,,,0.00,Wunderground v.1.15,2013-03-09 19:22:00,
2013-03-09 14:25:00,51.0,32.5,30.32,WNW,283,0.0,2.0,49,0.00,,,0.00,Wunderground v.1.15,2013-03-09 19:25:00,
2013-03-09 14:28:00,51.0,32.5,30.32,WNW,289,0.0,3.0,49,0.00,,,0.00,Wunderground v.1.15,2013-03-09 19:28:00,
2013-03-09 14:30:00,51.0,33.0,30.32,WNW,300,0.0,3.0,50,0.00,,,0.00,Wunderground v.1.15,2013-03-09 19:30:00,
2013-03-09 14:32:00,50.9,32.4,30.32,WNW,300,1.0,6.0,49,0.00,,,0.00,Wunderground v.1.15,2013-03-09 19:32:00,
2013-03-09 14:35:00,51.0,32.5,30.32,NNW,341,1.0,6.0,49,0.00,,,0.00,Wunderground v.1.15,2013-03-09 19:35:00,
2013-03-09 14:39:00,50.8,32.8,30.32,NNW,333,1.0,6.0,50,0.00,,,0.00,Wunderground v.1.15,2013-03-09 19:39:00,
2013-03-09 14:41:00,50.9,32.4,30.32,NW,321,1.0,3.0,49,0.00,,,0.00,Wunderground v.1.15,2013-03-09 19:41:00,
2013-03-09 14:43:00,51.0,32.5,30.32,NW,321,1.0,3.0,49,0.00,,,0.00,Wunderground v.1.15,2013-03-09 19:43:00,
2013-03-09 14:44:00,51.0,32.5,30.32,NW,321,1.0,3.0,49,0.00,,,0.00,Wunderground v.1.15,2013-03-09 19:44:00,
2013-03-09 14:48:00,51.0,32.5,30.32,NW,326,1.0,6.0,49,0.00,,,0.00,Wunderground v.1.15,2013-03-09 19:48:00,
2013-03-09 14:50:00,51.0,32.5,30.32,NW,326,1.0,1.0,49,0.00,,,0.00,Wunderground v.1.15,2013-03-09 19:50:00,
2013-03-09 14:53:00,51.3,32.8,30.32,NW,323,1.0,1.0,49,0.00,,,0.00,Wunderground v.1.15,2013-03-09 19:53:00,
2013-03-09 14:55:00,51.4,32.9,30.32,NW,324,1.0,1.0,49,0.00,,,0.00,Wunderground v.1.15,2013-03-09 19:55:00,
2013-03-09 15:01:00,51.9,32.8,30.32,WNW,300,1.0,7.0,48,0.00,,,0.00,Wunderground v.1.15,2013-03-09 20:01:00,
2013-03-09 15:03:00,52.2,33.1,30.32,WNW,299,1.0,7.0,48,0.00,,,0.00,Wunderground v.1.15,2013-03-09 20:03:00,
2013-03-09 15:07:00,52.3,33.2,30.32,WNW,301,1.0,7.0,48,0.00,,,0.00,Wunderground v.1.15,2013-03-09 20:07:00,
2013-03-09 15:08:00,52.3,33.2,30.32,WNW,301,1.0,7.0,48,0.00,,,0.00,Wunderground v.1.15,2013-03-09 20:08:00,
2013-03-09 15:09:00,52.4,33.3,30.32,WNW,300,0.0,7.0,48,0.00,,,0.00,Wunderground v.1.15,2013-03-09 20:09:00,
2013-03-09 15:13:00,52.4,32.7,30.32,WNW,298,0.0,2.0,47,0.00,,,0.00,Wunderground v.1.15,2013-03-09 20:13:00,
2013-03-09 15:15:00,52.4,32.7,30.32,NW,321,0.0,2.0,47,0.00,,,0.00,Wunderground v.1.15,2013-03-09 20:15:00,
2013-03-09 15:16:00,52.3,32.6,30.32,NW,322,0.0,2.0,47,0.00,,,0.00,Wunderground v.1.15,2013-03-09 20:16:00,
2013-03-09 15:17:00,52.3,32.6,30.32,NW,320,0.0,2.0,47,0.00,,,0.00,Wunderground v.1.15,2013-03-09 20:17:00,
2013-03-09 15:23:00,52.2,33.1,30.32,NW,312,1.0,4.0,48,0.00,,,0.00,Wunderground v.1.15,2013-03-09 20:23:00,
2013-03-09 15:24:00,52.2,33.1,30.32,NW,311,1.0,4.0,48,0.00,,,0.00,Wunderground v.1.15,2013-03-09 20:24:00,
2013-03-09 15:25:00,52.2,33.1,30.32,NW,312,1.0,4.0,48,0.00,,,0.00,Wunderground v.1.15,2013-03-09 20:25:00,
2013-03-09 15:30:00,52.3,33.2,30.31,NW,313,1.0,1.0,48,0.00,,,0.00,Wunderground v.1.15,2013-03-09 20:30:00,
2013-03-09 15:32:00,52.3,33.7,30.32,NW,313,1.0,6.0,49,0.00,,,0.00,Wunderground v.1.15,2013-03-09 20:32:00,
2013-03-09 15:33:00,52.3,33.2,30.32,NW,313,1.0,6.0,48,0.00,,,0.00,Wunderground v.1.15,2013-03-09 20:33:00,
2013-03-09 15:35:00,52.2,32.6,30.32,NW,308,1.0,6.0,47,0.00,,,0.00,Wunderground v.1.15,2013-03-09 20:35:00,
2013-03-09 15:38:00,52.1,33.0,30.32,NW,304,1.0,6.0,48,0.00,,,0.00,Wunderground v.1.15,2013-03-09 20:38:00,
2013-03-09 15:39:00,52.1,33.0,30.32,NNW,336,1.0,7.0,48,0.00,,,0.00,Wunderground v.1.15,2013-03-09 20:39:00,
2013-03-09 15:44:00,52.3,33.2,30.32,NW,317,1.0,1.0,48,0.00,,,0.00,Wunderground v.1.15,2013-03-09 20:44:00,
2013-03-09 15:48:00,52.5,32.8,30.31,WNW,300,1.0,4.0,47,0.00,,,0.00,Wunderground v.1.15,2013-03-09 20:48:00,
2013-03-09 15:49:00,52.6,32.9,30.31,WNW,300,1.0,4.0,47,0.00,,,0.00,Wunderground v.1.15,2013-03-09 20:49:00,
2013-03-09 15:50:00,52.6,33.5,30.31,WNW,300,1.0,1.0,48,0.00,,,0.00,Wunderground v.1.15,2013-03-09 20:50:00,
2013-03-09 15:55:00,52.9,33.7,30.31,WNW,296,1.0,1.0,48,0.00,,,0.00,Wunderground v.1.15,2013-03-09 20:55:00,
2013-03-09 15:57:00,53.0,33.8,30.31,WNW,292,0.0,1.0,48,0.00,,,0.00,Wunderground v.1.15,2013-03-09 20:57:00,
2013-03-09 15:58:00,53.1,33.4,30.31,WNW,287,0.0,1.0,47,0.00,,,0.00,Wunderground v.1.15,2013-03-09 20:58:00,
2013-03-09 15:59:00,53.1,33.9,30.31,WNW,295,0.0,4.0,48,0.00,,,0.00,Wunderground v.1.15,2013-03-09 20:59:00,
2013-03-09 16:02:00,53.0,33.3,30.31,NNW,331,1.0,5.0,47,0.00,,,0.00,Wunderground v.1.15,2013-03-09 21:02:00,
2013-03-09 16:03:00,53.0,33.8,30.31,NNW,331,1.0,5.0,48,0.00,,,0.00,Wunderground v.1.15,2013-03-09 21:03:00,
2013-03-09 16:05:00,53.0,33.3,30.31,NNW,331,1.0,5.0,47,0.00,,,0.00,Wunderground v.1.15,2013-03-09 21:05:00,
2013-03-09 16:08:00,53.3,33.6,30.31,NNW,331,1.0,5.0,47,0.00,,,0.00,Wunderground v.1.15,2013-03-09 21:08:00,
2013-03-09 16:11:00,53.6,33.8,30.31,ENE,65,0.0,1.0,47,0.00,,,0.00,Wunderground v.1.15,2013-03-09 21:11:00,
2013-03-09 16:12:00,53.7,34.5,30.31,ENE,65,0.0,1.0,48,0.00,,,0.00,Wunderground v.1.15,2013-03-09 21:12:00,
2013-03-09 16:13:00,53.8,34.0,30.31,NNW,345,0.0,1.0,47,0.00,,,0.00,Wunderground v.1.15,2013-03-09 21:13:00,
2013-03-09 16:16:00,54.1,33.8,30.31,NNW,329,0.0,2.0,46,0.00,,,0.00,Wunderground v.1.15,2013-03-09 21:16:00,
2013-03-09 16:18:00,54.2,33.9,30.31,NW,325,0.0,2.0,46,0.00,,,0.00,Wunderground v.1.15,2013-03-09 21:18:00,
2013-03-09 16:20:00,54.2,33.3,30.31,NW,307,0.0,0.0,45,0.00,,,0.00,Wunderground v.1.15,2013-03-09 21:20:00,
2013-03-09 16:23:00,54.0,33.7,30.31,NW,311,0.0,2.0,46,0.00,,,0.00,Wunderground v.1.15,2013-03-09 21:23:00,
2013-03-09 16:24:00,54.0,33.7,30.31,NW,311,0.0,2.0,46,0.00,,,0.00,Wunderground v.1.15,2013-03-09 21:24:00,
2013-03-09 16:27:00,53.7,32.8,30.31,NW,311,0.0,3.0,45,0.00,,,0.00,Wunderground v.1.15,2013-03-09 21:27:00,
2013-03-09 16:28:00,53.5,32.7,30.31,NW,313,1.0,3.0,45,0.00,,,0.00,Wunderground v.1.15,2013-03-09 21:28:00,
2013-03-09 16:29:00,53.5,33.2,30.31,NW,313,1.0,3.0,46,0.00,,,0.00,Wunderground v.1.15,2013-03-09 21:29:00,
2013-03-09 16:32:00,53.2,32.9,30.31,NW,313,1.0,7.0,46,0.00,,,0.00,Wunderground v.1.15,2013-03-09 21:32:00,
2013-03-09 16:34:00,53.2,32.9,30.31,North,360,0.0,7.0,46,0.00,,,0.00,Wunderground v.1.15,2013-03-09 21:34:00,
2013-03-09 16:35:00,53.1,32.8,30.31,North,360,1.0,7.0,46,0.00,,,0.00,Wunderground v.1.15,2013-03-09 21:35:00,
2013-03-09 16:37:00,53.1,32.8,30.31,North,349,0.0,7.0,46,0.00,,,0.00,Wunderground v.1.15,2013-03-09 21:37:00,
2013-03-09 16:38:00,53.1,32.8,30.31,NNW,344,0.0,7.0,46,0.00,,,0.00,Wunderground v.1.15,2013-03-09 21:38:00,
2013-03-09 16:40:00,53.0,32.8,30.31,NNW,344,0.0,0.0,46,0.00,,,0.00,Wunderground v.1.15,2013-03-09 21:40:00,
2013-03-09 16:41:00,52.9,32.7,30.31,NNW,344,0.0,0.0,46,0.00,,,0.00,Wunderground v.1.15,2013-03-09 21:41:00,
2013-03-09 16:44:00,52.9,32.7,30.31,NNW,344,0.0,0.0,46,0.00,,,0.00,Wunderground v.1.15,2013-03-09 21:44:00,
2013-03-09 16:47:00,52.8,33.1,30.31,NNW,344,0.0,0.0,47,0.00,,,0.00,Wunderground v.1.15,2013-03-09 21:47:00,
2013-03-09 16:49:00,52.8,32.6,30.31,NNW,344,0.0,0.0,46,0.00,,,0.00,Wunderground v.1.15,2013-03-09 21:49:00,
2013-03-09 16:51:00,52.8,33.1,30.31,NNW,336,0.0,2.0,47,0.00,,,0.00,Wunderground v.1.15,2013-03-09 21:51:00,
2013-03-09 16:52:00,52.8,33.1,30.31,NNW,335,0.0,2.0,47,0.00,,,0.00,Wunderground v.1.15,2013-03-09 21:52:00,
2013-03-09 16:54:00,52.7,34.1,30.31,NW,317,0.0,2.0,49,0.00,,,0.00,Wunderground v.1.15,2013-03-09 21:54:00,
2013-03-09 16:59:00,52.3,32.1,30.31,NW,323,1.0,2.0,46,0.00,,,0.00,Wunderground v.1.15,2013-03-09 21:59:00,
2013-03-09 17:00:00,52.2,32.0,30.30,NW,325,1.0,1.0,46,0.00,,,0.00,Wunderground v.1.15,2013-03-09 22:00:00,
2013-03-09 17:03:00,52.1,31.9,30.31,NW,325,1.0,5.0,46,0.00,,,0.00,Wunderground v.1.15,2013-03-09 22:03:00,
2013-03-09 17:07:00,52.2,32.6,30.31,NW,325,0.0,5.0,47,0.00,,,0.00,Wunderground v.1.15,2013-03-09 22:07:00,
2013-03-09 17:08:00,52.2,32.6,30.31,NW,325,0.0,5.0,47,0.00,,,0.00,Wunderground v.1.15,2013-03-09 22:08:00,
2013-03-09 17:10:00,52.2,32.6,30.31,NW,325,0.0,0.0,47,0.00,,,0.00,Wunderground v.1.15,2013-03-09 22:10:00,
2013-03-09 17:11:00,52.2,32.6,30.31,NW,325,0.0,0.0,47,0.00,,,0.00,Wunderground v.1.15,2013-03-09 22:11:00,
2013-03-09 17:14:00,52.1,32.5,30.31,NW,323,0.0,0.0,47,0.00,,,0.00,Wunderground v.1.15,2013-03-09 22:14:00,
2013-03-09 17:16:00,52.0,32.4,30.31,NW,325,0.0,0.0,47,0.00,,,0.00,Wunderground v.1.15,2013-03-09 22:16:00,
2013-03-09 17:17:00,52.0,32.4,30.31,NW,325,0.0,0.0,47,0.00,,,0.00,Wunderground v.1.15,2013-03-09 22:17:00,
2013-03-09 17:18:00,52.0,32.9,30.31,NW,325,0.0,0.0,48,0.00,,,0.00,Wunderground v.1.15,2013-03-09 22:18:00,
2013-03-09 17:21:00,51.9,32.8,30.31,NW,325,0.0,0.0,48,0.00,,,0.00,Wunderground v.1.15,2013-03-09 22:21:00,
2013-03-09 17:22:00,51.9,33.3,30.31,NW,325,0.0,0.0,49,0.00,,,0.00,Wunderground v.1.15,2013-03-09 22:22:00,
2013-03-09 17:24:00,51.9,33.8,30.31,NW,325,0.0,0.0,50,0.00,,,0.00,Wunderground v.1.15,2013-03-09 22:24:00,
2013-03-09 17:29:00,51.7,33.1,30.31,NW,325,0.0,0.0,49,0.00,,,0.00,Wunderground v.1.15,2013-03-09 22:29:00,
2013-03-09 17:30:00,51.7,33.1,30.31,NW,325,0.0,0.0,49,0.00,,,0.00,Wunderground v.1.15,2013-03-09 22:30:00,
2013-03-09 17:33:00,51.7,33.1,30.31,NW,325,0.0,5.0,49,0.00,,,0.00,Wunderground v.1.15,2013-03-09 22:33:00,
2013-03-09 17:35:00,51.5,31.9,30.31,NW,325,0.0,5.0,47,0.00,,,0.00,Wunderground v.1.15,2013-03-09 22:35:00,
2013-03-09 17:38:00,50.8,30.7,30.31,NNE,19,0.0,5.0,46,0.00,,,0.00,Wunderground v.1.15,2013-03-09 22:38:00,
2013-03-09 17:40:00,50.6,30.0,30.31,NNE,25,1.0,1.0,45,0.00,,,0.00,Wunderground v.1.15,2013-03-09 22:40:00,
2013-03-09 17:42:00,50.4,30.4,30.31,NNE,26,1.0,1.0,46,0.00,,,0.00,Wunderground v.1.15,2013-03-09 22:42:00,
2013-03-09 17:44:00,50.3,29.7,30.31,NNE,26,1.0,1.0,45,0.00,,,0.00,Wunderground v.1.15,2013-03-09 22:44:00,
2013-03-09 17:47:00,49.8,30.4,30.31,NNE,26,1.0,1.0,47,0.00,,,0.00,Wunderground v.1.15,2013-03-09 22:47:00,
2013-03-09 17:49:00,49.5,29.6,30.31,NNE,26,0.0,2.0,46,0.00,,,0.00,Wunderground v.1.15,2013-03-09 22:49:00,
2013-03-09 17:50:00,49.4,29.5,30.31,NNE,26,0.0,0.0,46,0.00,,,0.00,Wunderground v.1.15,2013-03-09 22:50:00,
2013-03-09 17:54:00,48.8,29.4,30.31,NNE,26,0.0,1.0,47,0.00,,,0.00,Wunderground v.1.15,2013-03-09 22:54:00,
2013-03-09 17:55:00,48.7,29.4,30.31,NNE,25,0.0,1.0,47,0.00,,,0.00,Wunderground v.1.15,2013-03-09 22:55:00,
2013-03-09 17:56:00,48.6,29.8,30.31,NNE,25,0.0,1.0,48,0.00,,,0.00,Wunderground v.1.15,2013-03-09 22:56:00,
2013-03-09 17:58:00,48.1,29.8,30.31,NNE,26,0.0,1.0,49,0.00,,,0.00,Wunderground v.1.15,2013-03-09 22:58:00,
2013-03-09 18:01:00,47.5,29.8,30.31,NNE,25,0.0,1.0,50,0.00,,,0.00,Wunderground v.1.15,2013-03-09 23:01:00,
2013-03-09 18:04:00,47.0,29.3,30.31,NNE,26,0.0,1.0,50,0.00,,,0.00,Wunderground v.1.15,2013-03-09 23:04:00,
2013-03-09 18:05:00,46.7,29.5,30.31,NNE,26,0.0,1.0,51,0.00,,,0.00,Wunderground v.1.15,2013-03-09 23:05:00,
2013-03-09 18:08:00,46.0,28.9,30.31,NNE,26,0.0,1.0,51,0.00,,,0.00,Wunderground v.1.15,2013-03-09 23:08:00,
2013-03-09 18:09:00,45.9,28.8,30.31,NNE,26,0.0,1.0,51,0.00,,,0.00,Wunderground v.1.15,2013-03-09 23:09:00,
2013-03-09 18:12:00,45.5,28.4,30.31,NNE,25,0.0,0.0,51,0.00,,,0.00,Wunderground v.1.15,2013-03-09 23:12:00,
2013-03-09 18:13:00,45.4,28.8,30.31,NNE,26,0.0,0.0,52,0.00,,,0.00,Wunderground v.1.15,2013-03-09 23:13:00,
2013-03-09 18:14:00,45.4,28.8,30.31,NNE,26,0.0,0.0,52,0.00,,,0.00,Wunderground v.1.15,2013-03-09 23:14:00,
2013-03-09 18:18:00,44.8,28.7,30.31,NNE,25,0.0,0.0,53,0.00,,,0.00,Wunderground v.1.15,2013-03-09 23:18:00,
2013-03-09 18:21:00,44.5,28.4,30.31,NNE,26,0.0,0.0,53,0.00,,,0.00,Wunderground v.1.15,2013-03-09 23:21:00,
2013-03-09 18:23:00,44.3,29.1,30.31,NNE,26,0.0,0.0,55,0.00,,,0.00,Wunderground v.1.15,2013-03-09 23:23:00,
2013-03-09 18:24:00,44.2,28.1,30.31,NNE,25,0.0,0.0,53,0.00,,,0.00,Wunderground v.1.15,2013-03-09 23:24:00,
2013-03-09 18:26:00,44.0,28.4,30.31,NNE,26,0.0,0.0,54,0.00,,,0.00,Wunderground v.1.15,2013-03-09 23:26:00,
2013-03-09 18:28:00,43.8,28.2,30.31,NNE,26,0.0,2.0,54,0.00,,,0.00,Wunderground v.1.15,2013-03-09 23:28:00,
2013-03-09 18:31:00,43.4,28.3,30.31,NNE,25,1.0,1.0,55,0.00,,,0.00,Wunderground v.1.15,2013-03-09 23:31:00,
2013-03-09 18:33:00,43.4,27.8,30.31,NNE,25,1.0,4.0,54,0.00,,,0.00,Wunderground v.1.15,2013-03-09 23:33:00,
2013-03-09 18:34:00,43.3,28.2,30.31,NNE,25,1.0,4.0,55,0.00,,,0.00,Wunderground v.1.15,2013-03-09 23:34:00,
2013-03-09 18:37:00,43.4,28.3,30.32,NNE,25,1.0,4.0,55,0.00,,,0.00,Wunderground v.1.15,2013-03-09 23:37:00,
2013-03-09 18:41:00,43.4,27.8,30.32,NNE,26,0.0,0.0,54,0.00,,,0.00,Wunderground v.1.15,2013-03-09 23:41:00,
2013-03-09 18:42:00,43.5,27.9,30.32,NNE,26,0.0,0.0,54,0.00,,,0.00,Wunderground v.1.15,2013-03-09 23:42:00,
2013-03-09 18:43:00,43.6,28.0,30.32,NNE,26,0.0,0.0,54,0.00,,,0.00,Wunderground v.1.15,2013-03-09 23:43:00,
2013-03-09 18:44:00,43.6,28.0,30.32,NNE,25,0.0,0.0,54,0.00,,,0.00,Wunderground v.1.15,2013-03-09 23:44:00,
2013-03-09 18:48:00,43.6,28.0,30.32,NNE,26,0.0,0.0,54,0.00,,,0.00,Wunderground v.1.15,2013-03-09 23:48:00,
2013-03-09 18:50:00,43.6,28.0,30.32,NNE,26,0.0,0.0,54,0.00,,,0.00,Wunderground v.1.15,2013-03-09 23:50:00,
2013-03-09 18:55:00,43.0,27.9,30.32,NNE,26,0.0,2.0,55,0.00,,,0.00,Wunderground v.1.15,2013-03-09 23:55:00,
2013-03-09 18:58:00,42.6,28.0,30.32,NNE,25,0.0,2.0,56,0.00,,,0.00,Wunderground v.1.15,2013-03-09 23:58:00,
2013-03-09 19:00:00,42.6,28.0,30.32,NNE,25,0.0,0.0,56,0.00,,,0.00,Wunderground v.1.15,2013-03-10 00:00:00,
2013-03-09 19:03:00,42.4,27.8,30.32,NNE,25,0.0,3.0,56,0.00,,,0.00,Wunderground v.1.15,2013-03-10 00:03:00,
2013-03-09 19:08:00,42.4,27.4,30.32,NNE,25,0.0,3.0,55,0.00,,,0.00,Wunderground v.1.15,2013-03-10 00:08:00,
2013-03-09 19:09:00,42.4,27.4,30.32,NNE,26,0.0,3.0,55,0.00,,,0.00,Wunderground v.1.15,2013-03-10 00:09:00,
2013-03-09 19:11:00,42.6,26.6,30.32,NNE,25,0.0,0.0,53,0.00,,,0.00,Wunderground v.1.15,2013-03-10 00:11:00,
2013-03-09 19:16:00,43.3,26.8,30.32,NNE,26,0.0,0.0,52,0.00,,,0.00,Wunderground v.1.15,2013-03-10 00:16:00,
2013-03-09 19:17:00,43.4,26.9,30.32,NNE,26,0.0,1.0,52,0.00,,,0.00,Wunderground v.1.15,2013-03-10 00:17:00,
2013-03-09 19:23:00,43.4,27.4,30.32,NNE,25,0.0,0.0,53,0.00,,,0.00,Wunderground v.1.15,2013-03-10 00:23:00,
2013-03-09 19:27:00,43.3,27.8,30.32,NNE,26,0.0,1.0,54,0.00,,,0.00,Wunderground v.1.15,2013-03-10 00:27:00,
2013-03-09 19:28:00,43.3,28.2,30.32,NNE,26,0.0,1.0,55,0.00,,,0.00,Wunderground v.1.15,2013-03-10 00:28:00,
2013-03-09 19:29:00,43.3,28.2,30.32,NNE,26,0.0,1.0,55,0.00,,,0.00,Wunderground v.1.15,2013-03-10 00:29:00,
2013-03-09 19:33:00,42.9,27.8,30.32,NNE,26,0.0,3.0,55,0.00,,,0.00,Wunderground v.1.15,2013-03-10 00:33:00,
2013-03-09 19:34:00,42.8,27.3,30.32,NNE,26,0.0,3.0,54,0.00,,,0.00,Wunderground v.1.15,2013-03-10 00:34:00,
2013-03-09 19:35:00,42.7,27.2,30.32,NNE,26,0.0,3.0,54,0.00,,,0.00,Wunderground v.1.15,2013-03-10 00:35:00,
2013-03-09 19:37:00,42.7,27.2,30.32,NNE,25,0.0,3.0,54,0.00,,,0.00,Wunderground v.1.15,2013-03-10 00:37:00,
2013-03-09 19:42:00,42.7,26.7,30.33,NNE,26,0.0,0.0,53,0.00,,,0.00,Wunderground v.1.15,2013-03-10 00:42:00,
2013-03-09 19:44:00,42.7,27.2,30.33,NNE,26,0.0,0.0,54,0.00,,,0.00,Wunderground v.1.15,2013-03-10 00:44:00,
2013-03-09 19:46:00,42.5,27.9,30.33,NNE,25,0.0,0.0,56,0.00,,,0.00,Wunderground v.1.15,2013-03-10 00:46:00,
2013-03-09 19:48:00,41.9,27.3,30.33,NNE,26,0.0,0.0,56,0.00,,,0.00,Wunderground v.1.15,2013-03-10 00:48:00,
2013-03-09 19:50:00,41.7,27.1,30.33,NNE,26,0.0,0.0,56,0.00,,,0.00,Wunderground v.1.15,2013-03-10 00:50:00,
2013-03-09 19:51:00,41.6,27.5,30.32,NNE,25,0.0,1.0,57,0.00,,,0.00,Wunderground v.1.15,2013-03-10 00:51:00,
2013-03-09 19:52:00,41.5,27.4,30.32,NNE,26,0.0,2.0,57,0.00,,,0.00,Wunderground v.1.15,2013-03-10 00:52:00,
2013-03-09 19:54:00,41.3,27.6,30.32,NNE,26,0.0,2.0,58,0.00,,,0.00,Wunderground v.1.15,2013-03-10 00:54:00,
2013-03-09 19:58:00,41.0,26.9,30.32,NNE,26,0.0,2.0,57,0.00,,,0.00,Wunderground v.1.15,2013-03-10 00:58:00,
2013-03-09 20:00:00,41.1,27.4,30.32,NNE,26,0.0,0.0,58,0.00,,,0.00,Wunderground v.1.15,2013-03-10 01:00:00,
2013-03-09 20:02:00,41.1,27.4,30.32,NNE,25,0.0,1.0,58,0.00,,,0.00,Wunderground v.1.15,2013-03-10 01:02:00,
2013-03-09 20:03:00,41.1,27.4,30.32,NNE,25,0.0,1.0,58,0.00,,,0.00,Wunderground v.1.15,2013-03-10 01:03:00,
2013-03-09 20:04:00,41.1,27.4,30.32,NNE,26,0.0,1.0,58,0.00,,,0.00,Wunderground v.1.15,2013-03-10 01:04:00,
2013-03-09 20:05:00,41.1,27.4,30.32,NNE,26,0.0,1.0,58,0.00,,,0.00,Wunderground v.1.15,2013-03-10 01:05:00,
2013-03-09 20:08:00,41.2,26.7,30.32,NNE,25,0.0,1.0,56,0.00,,,0.00,Wunderground v.1.15,2013-03-10 01:08:00,
2013-03-09 20:11:00,41.3,27.6,30.32,NNE,26,0.0,0.0,58,0.00,,,0.00,Wunderground v.1.15,2013-03-10 01:11:00,
2013-03-09 20:12:00,41.2,27.1,30.32,NNE,26,0.0,0.0,57,0.00,,,0.00,Wunderground v.1.15,2013-03-10 01:12:00,
2013-03-09 20:15:00,41.1,27.4,30.32,NNE,25,0.0,0.0,58,0.00,,,0.00,Wunderground v.1.15,2013-03-10 01:15:00,
2013-03-09 20:17:00,41.1,27.4,30.32,NNE,26,0.0,0.0,58,0.00,,,0.00,Wunderground v.1.15,2013-03-10 01:17:00,
2013-03-09 20:18:00,41.1,27.0,30.32,NNE,25,0.0,0.0,57,0.00,,,0.00,Wunderground v.1.15,2013-03-10 01:18:00,
2013-03-09 20:19:00,41.1,27.0,30.32,NNE,26,0.0,0.0,57,0.00,,,0.00,Wunderground v.1.15,2013-03-10 01:19:00,
2013-03-09 20:22:00,41.1,27.0,30.32,NNE,25,0.0,0.0,57,0.00,,,0.00,Wunderground v.1.15,2013-03-10 01:22:00,
2013-03-09 20:25:00,40.9,27.2,30.32,NNE,26,0.0,0.0,58,0.00,,,0.00,Wunderground v.1.15,2013-03-10 01:25:00,
2013-03-09 20:26:00,40.9,26.8,30.33,NNE,25,0.0,0.0,57,0.00,,,0.00,Wunderground v.1.15,2013-03-10 01:26:00,
2013-03-09 20:31:00,41.0,27.3,30.33,NNE,26,0.0,3.0,58,0.00,,,0.00,Wunderground v.1.15,2013-03-10 01:31:00,
2013-03-09 20:32:00,41.0,27.3,30.33,NNE,26,0.0,3.0,58,0.00,,,0.00,Wunderground v.1.15,2013-03-10 01:32:00,
2013-03-09 20:33:00,40.9,27.2,30.33,NNE,26,0.0,3.0,58,0.00,,,0.00,Wunderground v.1.15,2013-03-10 01:33:00,
2013-03-09 20:37:00,40.7,27.1,30.33,NNE,25,0.0,3.0,58,0.00,,,0.00,Wunderground v.1.15,2013-03-10 01:37:00,
2013-03-09 20:38:00,40.6,27.0,30.33,NNE,26,0.0,3.0,58,0.00,,,0.00,Wunderground v.1.15,2013-03-10 01:38:00,
2013-03-09 20:42:00,40.8,26.7,30.33,NNE,25,0.0,0.0,57,0.00,,,0.00,Wunderground v.1.15,2013-03-10 01:42:00,
2013-03-09 20:43:00,40.8,27.2,30.33,NNE,25,0.0,0.0,58,0.00,,,0.00,Wunderground v.1.15,2013-03-10 01:43:00,
2013-03-09 20:49:00,40.9,26.8,30.33,NNE,26,0.0,0.0,57,0.00,,,0.00,Wunderground v.1.15,2013-03-10 01:49:00,
2013-03-09 20:51:00,40.9,26.8,30.33,NNE,25,0.0,0.0,57,0.00,,,0.00,Wunderground v.1.15,2013-03-10 01:51:00,
2013-03-09 20:55:00,40.6,27.0,30.33,NNE,26,0.0,2.0,58,0.00,,,0.00,Wunderground v.1.15,2013-03-10 01:55:00,
2013-03-09 20:57:00,40.6,27.0,30.33,NNE,26,0.0,2.0,58,0.00,,,0.00,Wunderground v.1.15,2013-03-10 01:57:00,
2013-03-09 20:58:00,40.6,27.0,30.33,NNE,26,0.0,2.0,58,0.00,,,0.00,Wunderground v.1.15,2013-03-10 01:58:00,
2013-03-09 20:59:00,40.6,27.0,30.33,NNE,26,0.0,2.0,58,0.00,,,0.00,Wunderground v.1.15,2013-03-10 01:59:00,
2013-03-09 21:03:00,40.6,26.5,30.33,NNE,26,0.0,0.0,57,0.00,,,0.00,Wunderground v.1.15,2013-03-10 02:03:00,
2013-03-09 21:05:00,40.6,27.0,30.33,NNE,26,0.0,0.0,58,0.00,,,0.00,Wunderground v.1.15,2013-03-10 02:05:00,
2013-03-09 21:09:00,40.6,27.0,30.33,NNE,25,0.0,0.0,58,0.00,,,0.00,Wunderground v.1.15,2013-03-10 02:09:00,
2013-03-09 21:12:00,40.5,26.9,30.33,NNE,26,0.0,0.0,58,0.00,,,0.00,Wunderground v.1.15,2013-03-10 02:12:00,
2013-03-09 21:14:00,40.5,26.9,30.34,NNE,26,0.0,0.0,58,0.00,,,0.00,Wunderground v.1.15,2013-03-10 02:14:00,
2013-03-09 21:16:00,40.5,26.9,30.34,NNE,26,0.0,0.0,58,0.00,,,0.00,Wunderground v.1.15,2013-03-10 02:16:00,
2013-03-09 21:17:00,40.5,26.4,30.34,NNE,26,0.0,0.0,57,0.00,,,0.00,Wunderground v.1.15,2013-03-10 02:17:00,
2013-03-09 21:18:00,40.6,26.5,30.34,NNE,26,0.0,0.0,57,0.00,,,0.00,Wunderground v.1.15,2013-03-10 02:18:00,
2013-03-09 21:19:00,40.7,26.6,30.34,NNE,26,0.0,0.0,57,0.00,,,0.00,Wunderground v.1.15,2013-03-10 02:19:00,
2013-03-09 21:23:00,40.8,26.7,30.34,NNE,26,0.0,0.0,57,0.00,,,0.00,Wunderground v.1.15,2013-03-10 02:23:00,
2013-03-09 21:25:00,40.8,26.7,30.34,NNE,26,0.0,0.0,57,0.00,,,0.00,Wunderground v.1.15,2013-03-10 02:25:00,
2013-03-09 21:28:00,40.7,26.6,30.34,NNE,26,0.0,1.0,57,0.00,,,0.00,Wunderground v.1.15,2013-03-10 02:28:00,
2013-03-09 21:29:00,40.6,27.0,30.34,NNE,26,0.0,1.0,58,0.00,,,0.00,Wunderground v.1.15,2013-03-10 02:29:00,
2013-03-09 21:33:00,40.5,26.9,30.34,NNE,26,0.0,3.0,58,0.00,,,0.00,Wunderground v.1.15,2013-03-10 02:33:00,
2013-03-09 21:37:00,40.6,27.0,30.34,NNE,25,0.0,3.0,58,0.00,,,0.00,Wunderground v.1.15,2013-03-10 02:37:00,
2013-03-09 21:38:00,40.5,26.9,30.34,NNE,26,1.0,3.0,58,0.00,,,0.00,Wunderground v.1.15,2013-03-10 02:38:00,
2013-03-09 21:39:00,40.5,26.9,30.34,NNE,25,1.0,3.0,58,0.00,,,0.00,Wunderground v.1.15,2013-03-10 02:39:00,
2013-03-09 21:40:00,40.4,26.8,30.34,NNE,25,0.0,0.0,58,0.00,,,0.00,Wunderground v.1.15,2013-03-10 02:40:00,
2013-03-09 21:45:00,40.3,26.7,30.34,NNE,25,0.0,0.0,58,0.00,,,0.00,Wunderground v.1.15,2013-03-10 02:45:00,
2013-03-09 21:46:00,40.3,26.7,30.34,NNE,26,0.0,0.0,58,0.00,,,0.00,Wunderground v.1.15,2013-03-10 02:46:00,
2013-03-09 21:47:00,40.2,26.6,30.34,NNE,26,0.0,0.0,58,0.00,,,0.00,Wunderground v.1.15,2013-03-10 02:47:00,
2013-03-09 21:49:00,40.2,26.6,30.34,NNE,26,0.0,0.0,58,0.00,,,0.00,Wunderground v.1.15,2013-03-10 02:49:00,
2013-03-09 21:53:00,40.2,26.2,30.34,NNE,25,0.0,0.0,57,0.00,,,0.00,Wunderground v.1.15,2013-03-10 02:53:00,
2013-03-09 21:54:00,40.3,26.3,30.34,NNE,26,0.0,0.0,57,0.00,,,0.00,Wunderground v.1.15,2013-03-10 02:54:00,
2013-03-09 21:55:00,40.3,26.3,30.34,NNE,26,0.0,0.0,57,0.00,,,0.00,Wunderground v.1.15,2013-03-10 02:55:00,
2013-03-09 21:59:00,40.3,26.3,30.34,NNE,26,0.0,0.0,57,0.00,,,0.00,Wunderground v.1.15,2013-03-10 02:59:00,
2013-03-09 22:00:00,40.3,26.3,30.34,NNE,25,0.0,0.0,57,0.00,,,0.00,Wunderground v.1.15,2013-03-10 03:00:00,
2013-03-09 22:04:00,40.3,25.8,30.34,NNE,25,0.0,3.0,56,0.00,,,0.00,Wunderground v.1.15,2013-03-10 03:04:00,
2013-03-09 22:06:00,40.3,26.3,30.34,NNE,25,0.0,3.0,57,0.00,,,0.00,Wunderground v.1.15,2013-03-10 03:06:00,
2013-03-09 22:07:00,40.3,26.3,30.33,NNE,26,0.0,3.0,57,0.00,,,0.00,Wunderground v.1.15,2013-03-10 03:07:00,
2013-03-09 22:10:00,40.4,25.5,30.33,NNE,25,0.0,0.0,55,0.00,,,0.00,Wunderground v.1.15,2013-03-10 03:10:00,
2013-03-09 22:11:00,40.4,25.9,30.33,NNE,25,0.0,0.0,56,0.00,,,0.00,Wunderground v.1.15,2013-03-10 03:11:00,
2013-03-09 22:13:00,40.4,26.4,30.34,NNE,26,0.0,0.0,57,0.00,,,0.00,Wunderground v.1.15,2013-03-10 03:13:00,
2013-03-09 22:15:00,40.4,25.9,30.34,NNE,25,0.0,0.0,56,0.00,,,0.00,Wunderground v.1.15,2013-03-10 03:15:00,
2013-03-09 22:18:00,40.4,25.5,30.33,NNE,26,0.0,0.0,55,0.00,,,0.00,Wunderground v.1.15,2013-03-10 03:18:00,
2013-03-09 22:19:00,40.5,25.6,30.33,NNE,25,0.0,0.0,55,0.00,,,0.00,Wunderground v.1.15,2013-03-10 03:19:00,
2013-03-09 22:20:00,40.5,25.6,30.33,NNE,25,0.0,0.0,55,0.00,,,0.00,Wunderground v.1.15,2013-03-10 03:20:00,
2013-03-09 22:23:00,40.5,25.6,30.33,NNE,26,0.0,0.0,55,0.00,,,0.00,Wunderground v.1.15,2013-03-10 03:23:00,
2013-03-09 22:24:00,40.5,25.6,30.33,NNE,25,0.0,0.0,55,0.00,,,0.00,Wunderground v.1.15,2013-03-10 03:24:00,
2013-03-09 22:27:00,40.5,25.6,30.33,NNE,26,0.0,2.0,55,0.00,,,0.00,Wunderground v.1.15,2013-03-10 03:27:00,
2013-03-09 22:30:00,40.5,25.6,30.33,NNE,25,0.0,0.0,55,0.00,,,0.00,Wunderground v.1.15,2013-03-10 03:30:00,
2013-03-09 22:32:00,40.5,25.6,30.33,NNE,26,0.0,3.0,55,0.00,,,0.00,Wunderground v.1.15,2013-03-10 03:32:00,
2013-03-09 22:35:00,40.5,25.6,30.34,NNE,26,0.0,3.0,55,0.00,,,0.00,Wunderground v.1.15,2013-03-10 03:35:00,
2013-03-09 22:38:00,40.4,26.4,30.33,NNE,26,0.0,3.0,57,0.00,,,0.00,Wunderground v.1.15,2013-03-10 03:38:00,
2013-03-09 22:41:00,40.2,25.7,30.34,NNE,26,0.0,0.0,56,0.00,,,0.00,Wunderground v.1.15,2013-03-10 03:41:00,
2013-03-09 22:43:00,40.2,26.2,30.34,NNE,26,0.0,0.0,57,0.00,,,0.00,Wunderground v.1.15,2013-03-10 03:43:00,
2013-03-09 22:48:00,39.7,26.1,30.33,NNE,26,0.0,0.0,58,0.00,,,0.00,Wunderground v.1.15,2013-03-10 03:48:00,
2013-03-09 22:49:00,39.7,26.1,30.33,NNE,26,0.0,0.0,58,0.00,,,0.00,Wunderground v.1.15,2013-03-10 03:49:00,
2013-03-09 22:51:00,39.6,26.0,30.33,ENE,57,0.0,2.0,58,0.00,,,0.00,Wunderground v.1.15,2013-03-10 03:51:00,
2013-03-09 22:52:00,39.6,26.0,30.33,ENE,57,0.0,2.0,58,0.00,,,0.00,Wunderground v.1.15,2013-03-10 03:52:00,
2013-03-09 22:54:00,39.5,25.9,30.33,ENE,57,1.0,2.0,58,0.00,,,0.00,Wunderground v.1.15,2013-03-10 03:54:00,
2013-03-09 22:55:00,39.5,26.3,30.33,ENE,57,1.0,2.0,59,0.00,,,0.00,Wunderground v.1.15,2013-03-10 03:55:00,
2013-03-09 22:58:00,39.8,25.8,30.33,ENE,78,1.0,2.0,57,0.00,,,0.00,Wunderground v.1.15,2013-03-10 03:58:00,
2013-03-09 23:01:00,40.1,27.7,30.34,ENE,78,2.0,2.0,61,0.00,,,0.00,Wunderground v.1.15,2013-03-10 04:01:00,
2013-03-09 23:03:00,40.2,26.2,30.33,ENE,78,1.0,2.0,57,0.00,,,0.00,Wunderground v.1.15,2013-03-10 04:03:00,
2013-03-09 23:04:00,40.3,26.3,30.33,ENE,78,1.0,3.0,57,0.00,,,0.00,Wunderground v.1.15,2013-03-10 04:04:00,
2013-03-09 23:07:00,40.4,26.4,30.33,ENE,78,1.0,4.0,57,0.00,,,0.00,Wunderground v.1.15,2013-03-10 04:07:00,
2013-03-09 23:09:00,40.5,26.0,30.33,ENE,78,1.0,4.0,56,0.00,,,0.00,Wunderground v.1.15,2013-03-10 04:09:00,
2013-03-09 23:11:00,40.8,26.3,30.33,ENE,78,1.0,2.0,56,0.00,,,0.00,Wunderground v.1.15,2013-03-10 04:11:00,
2013-03-09 23:12:00,40.9,26.8,30.33,ENE,78,1.0,2.0,57,0.00,,,0.00,Wunderground v.1.15,2013-03-10 04:12:00,
2013-03-09 23:15:00,40.7,26.6,30.33,ENE,78,1.0,2.0,57,0.00,,,0.00,Wunderground v.1.15,2013-03-10 04:15:00,
2013-03-09 23:18:00,40.8,26.3,30.33,ENE,78,1.0,2.0,56,0.00,,,0.00,Wunderground v.1.15,2013-03-10 04:18:00,
2013-03-09 23:22:00,40.5,26.4,30.33,ENE,78,0.0,1.0,57,0.00,,,0.00,Wunderground v.1.15,2013-03-10 04:22:00,
2013-03-09 23:25:00,40.2,26.6,30.33,ENE,78,1.0,1.0,58,0.00,,,0.00,Wunderground v.1.15,2013-03-10 04:25:00,
2013-03-09 23:29:00,40.4,26.8,30.33,ENE,78,0.0,1.0,58,0.00,,,0.00,Wunderground v.1.15,2013-03-10 04:29:00,
2013-03-09 23:30:00,40.4,26.8,30.33,ENE,78,0.0,0.0,58,0.00,,,0.00,Wunderground v.1.15,2013-03-10 04:30:00,
2013-03-09 23:31:00,40.6,26.5,30.33,ENE,78,0.0,4.0,57,0.00,,,0.00,Wunderground v.1.15,2013-03-10 04:31:00,
2013-03-09 23:32:00,40.6,27.0,30.33,ENE,78,0.0,4.0,58,0.00,,,0.00,Wunderground v.1.15,2013-03-10 04:32:00,
2013-03-09 23:36:00,40.9,27.2,30.33,ENE,78,1.0,4.0,58,0.00,,,0.00,Wunderground v.1.15,2013-03-10 04:36:00,
2013-03-09 23:38:00,40.5,26.9,30.33,ENE,78,1.0,4.0,58,0.00,,,0.00,Wunderground v.1.15,2013-03-10 04:38:00,
2013-03-09 23:43:00,40.1,26.5,30.33,ENE,78,0.0,1.0,58,0.00,,,0.00,Wunderground v.1.15,2013-03-10 04:43:00,
2013-03-09 23:45:00,40.1,26.5,30.33,ENE,78,0.0,1.0,58,0.00,,,0.00,Wunderground v.1.15,2013-03-10 04:45:00,
2013-03-09 23:46:00,40.1,27.3,30.33,ENE,78,0.0,1.0,60,0.00,,,0.00,Wunderground v.1.15,2013-03-10 04:46:00,
2013-03-09 23:48:00,39.8,26.6,30.33,ENE,78,0.0,2.0,59,0.00,,,0.00,Wunderground v.1.15,2013-03-10 04:48:00,
2013-03-09 23:51:00,40.0,26.8,30.33,ENE,78,0.0,1.0,59,0.00,,,0.00,Wunderground v.1.15,2013-03-10 04:51:00,
2013-03-09 23:52:00,40.2,26.6,30.33,ENE,78,0.0,1.0,58,0.00,,,0.00,Wunderground v.1.15,2013-03-10 04:52:00,
2013-03-09 23:55:00,40.4,26.8,30.33,ENE,78,1.0,3.0,58,0.00,,,0.00,Wunderground v.1.15,2013-03-10 04:55:00,
2013-03-09 23:59:00,40.6,27.0,30.33,ENE,78,1.0,3.0,58,0.00,,,0.00,Wunderground v.1.15,2013-03-10 04:59:00,